Wetterdaten: Montag, 04.03.2019
Datum Zeit Temp. Aussen Temp. o. S. +5cm Feuchte Auss Luftdruck Regen Sonnenschein Regendauer Solar Windben Empfang
04.03.2019 00:00 12,8 C 12,2 C 11,7 C 78 % 995,3 hPa 0,0 l/m 0 min 0 min 0 W/m 19,3 km/h (3 Bft) 97,87 %
04.03.2019 00:02 12,8 C 12,2 C 11,7 C 78 % 995,3 hPa 0,0 l/m 0 min 0 min 0 W/m 25,7 km/h (4 Bft) 100,00 %
04.03.2019 00:04 12,8 C 12,2 C 11,7 C 78 % 995,3 hPa 0,0 l/m 0 min 0 min 0 W/m 19,3 km/h (3 Bft) 100,00 %
04.03.2019 00:07 12,8 C 12,2 C 11,7 C 78 % 995,5 hPa 0,0 l/m 0 min 0 min 0 W/m 38,6 km/h (5 Bft) 98,59 %
04.03.2019 00:08 12,8 C 12,2 C 11,7 C 78 % 995,6 hPa 0,0 l/m 0 min 0 min 0 W/m 25,7 km/h (4 Bft) 100,00 %
04.03.2019 00:10 12,8 C 12,2 C 11,7 C 78 % 995,5 hPa 0,0 l/m 0 min 0 min 0 W/m 32,2 km/h (5 Bft) 97,83 %
04.03.2019 00:12 12,8 C 12,2 C 11,7 C 78 % 995,4 hPa 0,0 l/m 0 min 0 min 0 W/m 29,0 km/h (5 Bft) 100,00 %
04.03.2019 00:14 12,8 C 12,2 C 11,7 C 78 % 995,4 hPa 0,0 l/m 0 min 0 min 0 W/m 22,5 km/h (4 Bft) 100,00 %
04.03.2019 00:16 12,8 C 12,2 C 11,7 C 78 % 995,3 hPa 0,0 l/m 0 min 0 min 0 W/m 22,5 km/h (4 Bft) 97,87 %
04.03.2019 00:18 12,9 C 12,2 C 11,7 C 78 % 995,4 hPa 0,0 l/m 0 min 0 min 0 W/m 19,3 km/h (3 Bft) 100,00 %
04.03.2019 00:20 12,9 C 12,2 C 11,7 C 78 % 995,5 hPa 0,0 l/m 0 min 0 min 0 W/m 25,7 km/h (4 Bft) 100,00 %
04.03.2019 00:22 12,9 C 12,2 C 11,7 C 78 % 995,7 hPa 0,0 l/m 0 min 0 min 0 W/m 38,6 km/h (5 Bft) 100,00 %
04.03.2019 00:24 12,9 C 12,2 C 11,7 C 78 % 995,6 hPa 0,0 l/m 0 min 0 min 0 W/m 29,0 km/h (5 Bft) 100,00 %
04.03.2019 00:26 12,9 C 12,2 C 11,7 C 78 % 995,6 hPa 0,0 l/m 0 min 0 min 0 W/m 29,0 km/h (5 Bft) 100,00 %
04.03.2019 00:28 12,9 C 12,2 C 11,7 C 77 % 995,5 hPa 0,0 l/m 0 min 0 min 0 W/m 19,3 km/h (3 Bft) 97,87 %
04.03.2019 00:30 12,9 C 12,2 C 11,7 C 77 % 995,5 hPa 0,0 l/m 0 min 0 min 0 W/m 41,8 km/h (6 Bft) 100,00 %
04.03.2019 00:32 12,9 C 12,2 C 11,7 C 77 % 995,5 hPa 0,0 l/m 0 min 0 min 0 W/m 25,7 km/h (4 Bft) 100,00 %
04.03.2019 00:34 12,9 C 12,2 C 11,7 C 77 % 995,4 hPa 0,0 l/m 0 min 0 min 0 W/m 25,7 km/h (4 Bft) 100,00 %
04.03.2019 00:36 12,9 C 12,2 C 11,7 C 77 % 995,3 hPa 0,0 l/m 0 min 0 min 0 W/m 29,0 km/h (5 Bft) 100,00 %
04.03.2019 00:38 13,0 C 12,2 C 11,7 C 77 % 995,2 hPa 0,0 l/m 0 min 0 min 0 W/m 25,7 km/h (4 Bft) 100,00 %
04.03.2019 00:40 12,9 C 12,2 C 11,7 C 77 % 995,2 hPa 0,0 l/m 0 min 0 min 0 W/m 25,7 km/h (4 Bft) 100,00 %
04.03.2019 00:42 12,9 C 12,2 C 11,7 C 77 % 995,2 hPa 0,0 l/m 0 min 0 min 0 W/m 29,0 km/h (5 Bft) 100,00 %
04.03.2019 00:44 12,9 C 12,2 C 11,7 C 77 % 995,3 hPa 0,0 l/m 0 min 0 min 0 W/m 25,7 km/h (4 Bft) 100,00 %
04.03.2019 00:46 12,9 C 12,2 C 11,7 C 77 % 995,2 hPa 0,0 l/m 0 min 0 min 0 W/m 22,5 km/h (4 Bft) 100,00 %
04.03.2019 00:48 12,9 C 12,2 C 11,7 C 77 % 995,3 hPa 0,0 l/m 0 min 0 min 0 W/m 29,0 km/h (5 Bft) 100,00 %
04.03.2019 00:50 12,9 C 12,2 C 11,7 C 77 % 995,2 hPa 0,0 l/m 0 min 0 min 0 W/m 19,3 km/h (3 Bft) 100,00 %
04.03.2019 00:52 12,9 C 12,2 C 11,7 C 77 % 995,2 hPa 0,0 l/m 0 min 0 min 0 W/m 12,9 km/h (3 Bft) 100,00 %
04.03.2019 00:54 12,9 C 12,2 C 11,7 C 77 % 995,1 hPa 0,0 l/m 0 min 0 min 0 W/m 22,5 km/h (4 Bft) 100,00 %
04.03.2019 00:56 12,9 C 12,2 C 11,7 C 77 % 995,2 hPa 0,0 l/m 0 min 0 min 0 W/m 22,5 km/h (4 Bft) 100,00 %
04.03.2019 00:58 12,8 C 12,2 C 11,7 C 77 % 995,1 hPa 0,0 l/m 0 min 0 min 0 W/m 41,8 km/h (6 Bft) 100,00 %
04.03.2019 01:00 12,8 C 12,2 C 11,7 C 77 % 995,1 hPa 0,0 l/m 0 min 0 min 0 W/m 32,2 km/h (5 Bft) 100,00 %
04.03.2019 01:02 12,8 C 12,2 C 11,7 C 77 % 994,9 hPa 0,0 l/m 0 min 0 min 0 W/m 35,4 km/h (5 Bft) 100,00 %
04.03.2019 01:04 12,8 C 12,2 C 11,7 C 77 % 994,9 hPa 0,0 l/m 0 min 0 min 0 W/m 22,5 km/h (4 Bft) 100,00 %
04.03.2019 01:06 12,9 C 12,2 C 11,7 C 77 % 994,7 hPa 0,0 l/m 0 min 0 min 0 W/m 25,7 km/h (4 Bft) 98,28 %
04.03.2019 01:08 12,9 C 12,2 C 11,7 C 77 % 994,8 hPa 0,0 l/m 0 min 0 min 0 W/m 25,7 km/h (4 Bft) 100,00 %
04.03.2019 01:10 12,9 C 12,2 C 11,7 C 77 % 994,7 hPa 0,0 l/m 0 min 0 min 0 W/m 16,1 km/h (3 Bft) 100,00 %
04.03.2019 01:12 12,9 C 12,2 C 11,7 C 77 % 994,5 hPa 0,0 l/m 0 min 0 min 0 W/m 25,7 km/h (4 Bft) 97,87 %
04.03.2019 01:14 12,8 C 12,2 C 11,7 C 77 % 994,4 hPa 0,0 l/m 0 min 0 min 0 W/m 22,5 km/h (4 Bft) 100,00 %
04.03.2019 01:16 12,8 C 12,2 C 11,7 C 77 % 994,5 hPa 0,0 l/m 0 min 0 min 0 W/m 32,2 km/h (5 Bft) 97,87 %
04.03.2019 01:18 12,9 C 12,2 C 11,7 C 77 % 994,2 hPa 0,0 l/m 0 min 0 min 0 W/m 45,1 km/h (6 Bft) 100,00 %
04.03.2019 01:20 12,9 C 12,2 C 11,7 C 77 % 994,1 hPa 0,0 l/m 0 min 0 min 0 W/m 25,7 km/h (4 Bft) 97,83 %
04.03.2019 01:22 12,9 C 12,2 C 11,7 C 77 % 993,9 hPa 0,0 l/m 0 min 0 min 0 W/m 19,3 km/h (3 Bft) 91,49 %
04.03.2019 01:24 12,9 C 12,2 C 11,7 C 76 % 993,7 hPa 0,0 l/m 0 min 0 min 0 W/m 32,2 km/h (5 Bft) 95,74 %
04.03.2019 01:26 12,9 C 12,2 C 11,7 C 76 % 993,6 hPa 0,0 l/m 0 min 0 min 0 W/m 16,1 km/h (3 Bft) 97,87 %
04.03.2019 01:28 12,9 C 12,2 C 11,7 C 76 % 993,7 hPa 0,0 l/m 0 min 0 min 0 W/m 16,1 km/h (3 Bft) 95,74 %
04.03.2019 01:30 12,9 C 12,2 C 11,7 C 76 % 993,7 hPa 0,0 l/m 0 min 0 min 0 W/m 16,1 km/h (3 Bft) 95,74 %
04.03.2019 01:32 12,9 C 12,2 C 11,7 C 76 % 993,8 hPa 0,0 l/m 0 min 0 min 0 W/m 12,9 km/h (3 Bft) 93,48 %
04.03.2019 01:34 12,9 C 12,2 C 11,7 C 77 % 993,9 hPa 0,0 l/m 0 min 0 min 0 W/m 19,3 km/h (3 Bft) 95,74 %
04.03.2019 01:36 12,8 C 12,2 C 11,7 C 77 % 993,7 hPa 0,0 l/m 0 min 0 min 0 W/m 29,0 km/h (5 Bft) 94,92 %
04.03.2019 01:38 12,8 C 12,2 C 11,7 C 77 % 993,6 hPa 0,0 l/m 0 min 0 min 0 W/m 19,3 km/h (3 Bft) 94,29 %
04.03.2019 01:40 12,8 C 12,2 C 11,7 C 77 % 993,6 hPa 0,0 l/m 0 min 0 min 0 W/m 22,5 km/h (4 Bft) 95,74 %
04.03.2019 01:42 12,8 C 12,2 C 11,7 C 77 % 993,7 hPa 0,0 l/m 0 min 0 min 0 W/m 29,0 km/h (5 Bft) 95,74 %
04.03.2019 01:44 12,8 C 12,2 C 11,7 C 77 % 993,6 hPa 0,0 l/m 0 min 0 min 0 W/m 19,3 km/h (3 Bft) 95,65 %
04.03.2019 01:46 12,8 C 12,2 C 11,7 C 76 % 993,9 hPa 0,0 l/m 0 min 0 min 0 W/m 32,2 km/h (5 Bft) 95,74 %
04.03.2019 01:48 12,8 C 12,2 C 11,7 C 76 % 993,9 hPa 0,0 l/m 0 min 0 min 0 W/m 35,4 km/h (5 Bft) 95,74 %
04.03.2019 01:50 12,8 C 12,2 C 11,7 C 76 % 993,6 hPa 0,0 l/m 0 min 0 min 0 W/m 25,7 km/h (4 Bft) 95,74 %
04.03.2019 01:52 12,8 C 12,2 C 11,7 C 76 % 993,6 hPa 0,0 l/m 0 min 0 min 0 W/m 25,7 km/h (4 Bft) 97,87 %
04.03.2019 01:54 12,9 C 12,2 C 11,7 C 76 % 993,6 hPa 0,0 l/m 0 min 0 min 0 W/m 35,4 km/h (5 Bft) 93,62 %
04.03.2019 01:56 12,9 C 12,2 C 11,7 C 76 % 993,7 hPa 0,0 l/m 0 min 0 min 0 W/m 25,7 km/h (4 Bft) 97,83 %
04.03.2019 01:58 12,9 C 12,2 C 11,7 C 76 % 993,6 hPa 0,0 l/m 0 min 0 min 0 W/m 29,0 km/h (5 Bft) 94,00 %
04.03.2019 02:00 12,9 C 12,2 C 11,7 C 76 % 993,6 hPa 0,0 l/m 0 min 0 min 0 W/m 25,7 km/h (4 Bft) 93,62 %
04.03.2019 02:02 12,9 C 12,2 C 11,7 C 76 % 993,6 hPa 0,0 l/m 0 min 0 min 0 W/m 35,4 km/h (5 Bft) 93,62 %
04.03.2019 02:04 12,9 C 12,2 C 11,7 C 76 % 993,5 hPa 0,0 l/m 0 min 0 min 0 W/m 29,0 km/h (5 Bft) 93,62 %
04.03.2019 02:06 12,9 C 12,2 C 11,7 C 76 % 993,4 hPa 0,0 l/m 0 min 0 min 0 W/m 32,2 km/h (5 Bft) 93,10 %
04.03.2019 02:08 12,9 C 12,2 C 11,7 C 76 % 993,5 hPa 0,0 l/m 0 min 0 min 0 W/m 45,1 km/h (6 Bft) 91,43 %
04.03.2019 02:10 13,0 C 12,2 C 11,7 C 75 % 993,5 hPa 0,0 l/m 0 min 0 min 0 W/m 38,6 km/h (5 Bft) 93,62 %
04.03.2019 02:12 13,0 C 12,2 C 11,7 C 75 % 993,6 hPa 0,0 l/m 0 min 0 min 0 W/m 41,8 km/h (6 Bft) 91,49 %
04.03.2019 02:14 13,0 C 12,2 C 11,7 C 75 % 993,4 hPa 0,0 l/m 0 min 0 min 0 W/m 25,7 km/h (4 Bft) 93,62 %
04.03.2019 02:16 13,0 C 12,2 C 11,7 C 75 % 993,4 hPa 0,0 l/m 0 min 0 min 0 W/m 32,2 km/h (5 Bft) 95,74 %
04.03.2019 02:18 13,1 C 12,2 C 11,7 C 75 % 993,3 hPa 0,0 l/m 0 min 0 min 0 W/m 38,6 km/h (5 Bft) 95,65 %
04.03.2019 02:20 13,1 C 12,2 C 11,7 C 75 % 993,3 hPa 0,0 l/m 0 min 0 min 0 W/m 35,4 km/h (5 Bft) 97,87 %
04.03.2019 02:22 13,1 C 12,2 C 11,7 C 75 % 993,2 hPa 0,0 l/m 0 min 0 min 0 W/m 25,7 km/h (4 Bft) 93,62 %
04.03.2019 02:24 13,1 C 12,2 C 11,7 C 75 % 993,1 hPa 0,0 l/m 0 min 0 min 0 W/m 38,6 km/h (5 Bft) 97,87 %
04.03.2019 02:26 13,1 C 12,2 C 11,7 C 75 % 992,9 hPa 0,0 l/m 0 min 0 min 0 W/m 45,1 km/h (6 Bft) 95,74 %
04.03.2019 02:28 13,1 C 12,2 C 11,7 C 75 % 993,0 hPa 0,0 l/m 0 min 0 min 0 W/m 35,4 km/h (5 Bft) 97,87 %
04.03.2019 02:30 13,1 C 12,2 C 11,7 C 75 % 993,0 hPa 0,0 l/m 0 min 0 min 0 W/m 48,3 km/h (6 Bft) 97,83 %
04.03.2019 02:32 13,1 C 12,2 C 11,7 C 75 % 993,0 hPa 0,0 l/m 0 min 0 min 0 W/m 25,7 km/h (4 Bft) 95,74 %
04.03.2019 02:34 13,1 C 12,2 C 11,7 C 75 % 992,9 hPa 0,0 l/m 0 min 0 min 0 W/m 48,3 km/h (6 Bft) 97,87 %
04.03.2019 02:36 13,1 C 12,2 C 11,7 C 75 % 992,6 hPa 0,0 l/m 0 min 0 min 0 W/m 48,3 km/h (6 Bft) 98,31 %
04.03.2019 02:38 13,1 C 12,2 C 11,7 C 76 % 992,7 hPa 0,0 l/m 0 min 0 min 0 W/m 32,2 km/h (5 Bft) 97,14 %
04.03.2019 02:40 13,0 C 12,2 C 11,7 C 76 % 992,3 hPa 0,0 l/m 0 min 0 min 0 W/m 25,7 km/h (4 Bft) 95,74 %
04.03.2019 02:42 13,0 C 12,2 C 11,7 C 76 % 992,3 hPa 0,0 l/m 0 min 0 min 0 W/m 38,6 km/h (5 Bft) 100,00 %
04.03.2019 02:44 13,0 C 12,2 C 11,7 C 76 % 992,3 hPa 0,0 l/m 0 min 0 min 0 W/m 41,8 km/h (6 Bft) 100,00 %
04.03.2019 02:46 12,9 C 12,2 C 11,7 C 76 % 992,4 hPa 0,0 l/m 0 min 0 min 0 W/m 38,6 km/h (5 Bft) 100,00 %
04.03.2019 02:48 12,9 C 12,2 C 11,7 C 76 % 992,4 hPa 0,0 l/m 0 min 0 min 0 W/m 38,6 km/h (5 Bft) 97,87 %
04.03.2019 02:50 12,9 C 12,2 C 11,7 C 76 % 992,7 hPa 0,0 l/m 0 min 0 min 0 W/m 48,3 km/h (6 Bft) 100,00 %
04.03.2019 02:52 12,9 C 12,2 C 11,7 C 77 % 992,6 hPa 0,0 l/m 0 min 0 min 0 W/m 51,5 km/h (7 Bft) 100,00 %
04.03.2019 02:54 12,9 C 12,2 C 11,7 C 77 % 992,4 hPa 0,0 l/m 0 min 0 min 0 W/m 48,3 km/h (6 Bft) 100,00 %
04.03.2019 02:56 12,9 C 12,2 C 11,7 C 77 % 992,1 hPa 0,0 l/m 0 min 0 min 0 W/m 29,0 km/h (5 Bft) 100,00 %
04.03.2019 02:58 12,8 C 12,2 C 11,7 C 77 % 992,0 hPa 0,0 l/m 0 min 0 min 0 W/m 45,1 km/h (6 Bft) 97,87 %
04.03.2019 03:00 12,8 C 12,2 C 11,7 C 77 % 991,9 hPa 0,0 l/m 0 min 0 min 0 W/m 48,3 km/h (6 Bft) 100,00 %
04.03.2019 03:02 12,8 C 12,2 C 11,7 C 77 % 991,9 hPa 0,0 l/m 0 min 0 min 0 W/m 41,8 km/h (6 Bft) 97,87 %
04.03.2019 03:04 12,8 C 12,2 C 11,7 C 77 % 991,7 hPa 0,0 l/m 0 min 0 min 0 W/m 41,8 km/h (6 Bft) 100,00 %
04.03.2019 03:06 12,8 C 12,2 C 11,7 C 78 % 991,2 hPa 0,0 l/m 0 min 0 min 0 W/m 45,1 km/h (6 Bft) 100,00 %
04.03.2019 03:08 12,7 C 12,2 C 11,7 C 78 % 990,9 hPa 0,0 l/m 0 min 0 min 0 W/m 45,1 km/h (6 Bft) 100,00 %
04.03.2019 03:10 12,7 C 12,2 C 11,1 C 77 % 990,6 hPa 0,0 l/m 0 min 0 min 0 W/m 38,6 km/h (5 Bft) 100,00 %
04.03.2019 03:12 12,7 C 11,7 C 11,1 C 77 % 990,5 hPa 0,0 l/m 0 min 0 min 0 W/m 38,6 km/h (5 Bft) 100,00 %
04.03.2019 03:14 12,7 C 11,7 C 11,1 C 77 % 990,5 hPa 0,0 l/m 0 min 0 min 0 W/m 25,7 km/h (4 Bft) 100,00 %
04.03.2019 03:16 12,7 C 12,2 C 11,1 C 77 % 990,9 hPa 0,0 l/m 0 min 0 min 0 W/m 57,9 km/h (7 Bft) 100,00 %
04.03.2019 03:18 12,7 C 12,2 C 11,7 C 77 % 990,9 hPa 0,0 l/m 0 min 0 min 0 W/m 35,4 km/h (5 Bft) 100,00 %
04.03.2019 03:20 12,7 C 11,7 C 11,1 C 77 % 991,0 hPa 0,0 l/m 0 min 0 min 0 W/m 22,5 km/h (4 Bft) 100,00 %
04.03.2019 03:22 12,6 C 12,2 C 11,7 C 77 % 991,3 hPa 0,0 l/m 0 min 0 min 0 W/m 38,6 km/h (5 Bft) 100,00 %
04.03.2019 03:24 12,6 C 12,2 C 11,7 C 77 % 991,2 hPa 0,0 l/m 0 min 0 min 0 W/m 45,1 km/h (6 Bft) 100,00 %
04.03.2019 03:26 12,6 C 12,2 C 11,7 C 77 % 991,0 hPa 0,0 l/m 0 min 0 min 0 W/m 35,4 km/h (5 Bft) 100,00 %
04.03.2019 03:28 12,6 C 12,2 C 11,7 C 77 % 990,8 hPa 0,0 l/m 0 min 0 min 0 W/m 35,4 km/h (5 Bft) 100,00 %
04.03.2019 03:30 12,6 C 12,2 C 11,1 C 76 % 990,9 hPa 0,0 l/m 0 min 0 min 0 W/m 38,6 km/h (5 Bft) 100,00 %
04.03.2019 03:32 12,6 C 12,2 C 11,1 C 76 % 990,8 hPa 0,0 l/m 0 min 0 min 0 W/m 32,2 km/h (5 Bft) 100,00 %
04.03.2019 03:34 12,6 C 11,7 C 11,1 C 76 % 990,7 hPa 0,0 l/m 0 min 0 min 0 W/m 29,0 km/h (5 Bft) 100,00 %
04.03.2019 03:36 12,6 C 12,2 C 11,1 C 76 % 990,6 hPa 0,0 l/m 0 min 0 min 0 W/m 45,1 km/h (6 Bft) 100,00 %
04.03.2019 03:38 12,6 C 12,2 C 11,7 C 75 % 990,5 hPa 0,0 l/m 0 min 0 min 0 W/m 48,3 km/h (6 Bft) 100,00 %
04.03.2019 03:40 12,7 C 12,2 C 11,7 C 75 % 990,6 hPa 0,0 l/m 0 min 0 min 0 W/m 35,4 km/h (5 Bft) 100,00 %
04.03.2019 03:42 12,7 C 12,2 C 11,7 C 75 % 990,3 hPa 0,0 l/m 0 min 0 min 0 W/m 38,6 km/h (5 Bft) 100,00 %
04.03.2019 03:44 12,7 C 12,2 C 11,7 C 75 % 990,4 hPa 0,0 l/m 0 min 0 min 0 W/m 35,4 km/h (5 Bft) 100,00 %
04.03.2019 03:46 12,8 C 12,2 C 11,7 C 74 % 990,3 hPa 0,0 l/m 0 min 0 min 0 W/m 41,8 km/h (6 Bft) 100,00 %
04.03.2019 03:48 12,8 C 12,2 C 11,7 C 74 % 990,3 hPa 0,0 l/m 0 min 0 min 0 W/m 48,3 km/h (6 Bft) 97,87 %
04.03.2019 03:50 12,8 C 12,2 C 11,7 C 74 % 990,1 hPa 0,0 l/m 0 min 0 min 0 W/m 35,4 km/h (5 Bft) 97,87 %
04.03.2019 03:52 12,8 C 12,2 C 11,7 C 74 % 990,0 hPa 0,0 l/m 0 min 0 min 0 W/m 22,5 km/h (4 Bft) 97,83 %
04.03.2019 03:54 12,9 C 12,2 C 11,7 C 73 % 990,0 hPa 0,0 l/m 0 min 0 min 0 W/m 32,2 km/h (5 Bft) 100,00 %
04.03.2019 03:56 12,9 C 12,2 C 11,7 C 73 % 989,9 hPa 0,0 l/m 0 min 0 min 0 W/m 48,3 km/h (6 Bft) 100,00 %
04.03.2019 03:58 12,9 C 12,2 C 11,7 C 73 % 989,8 hPa 0,0 l/m 0 min 0 min 0 W/m 45,1 km/h (6 Bft) 100,00 %
04.03.2019 04:00 12,9 C 12,2 C 11,7 C 72 % 989,7 hPa 0,0 l/m 0 min 0 min 0 W/m 38,6 km/h (5 Bft) 100,00 %
04.03.2019 04:02 12,9 C 12,2 C 11,7 C 72 % 989,6 hPa 0,0 l/m 0 min 0 min 0 W/m 38,6 km/h (5 Bft) 94,44 %
04.03.2019 04:04 13,0 C 12,2 C 11,7 C 72 % 989,5 hPa 0,0 l/m 0 min 0 min 0 W/m 38,6 km/h (5 Bft) 91,30 %
04.03.2019 04:06 13,0 C 12,8 C 12,2 C 72 % 989,2 hPa 0,0 l/m 0 min 0 min 0 W/m 48,3 km/h (6 Bft) 100,00 %
04.03.2019 04:08 13,1 C 12,8 C 12,2 C 71 % 989,1 hPa 0,0 l/m 0 min 0 min 0 W/m 51,5 km/h (7 Bft) 97,14 %
04.03.2019 04:10 13,2 C 12,8 C 12,2 C 71 % 989,0 hPa 0,0 l/m 0 min 0 min 0 W/m 51,5 km/h (7 Bft) 95,74 %
04.03.2019 04:12 13,2 C 12,8 C 12,2 C 70 % 989,1 hPa 0,0 l/m 0 min 0 min 0 W/m 67,6 km/h (8 Bft) 97,87 %
04.03.2019 04:14 13,3 C 12,8 C 12,2 C 70 % 988,8 hPa 0,0 l/m 0 min 0 min 0 W/m 51,5 km/h (7 Bft) 100,00 %
04.03.2019 04:16 13,3 C 12,8 C 12,2 C 70 % 988,6 hPa 0,0 l/m 0 min 0 min 0 W/m 38,6 km/h (5 Bft) 100,00 %
04.03.2019 04:18 13,4 C 12,8 C 12,2 C 69 % 988,3 hPa 0,0 l/m 0 min 0 min 0 W/m 38,6 km/h (5 Bft) 97,87 %
04.03.2019 04:20 13,4 C 13,3 C 12,2 C 69 % 988,4 hPa 0,0 l/m 0 min 0 min 0 W/m 38,6 km/h (5 Bft) 97,87 %
04.03.2019 04:22 13,5 C 13,3 C 12,2 C 69 % 988,2 hPa 0,0 l/m 0 min 0 min 0 W/m 48,3 km/h (6 Bft) 97,87 %
04.03.2019 04:24 13,6 C 13,3 C 12,8 C 69 % 988,2 hPa 0,0 l/m 0 min 0 min 0 W/m 54,7 km/h (7 Bft) 97,87 %
04.03.2019 04:26 13,7 C 13,3 C 12,8 C 68 % 988,6 hPa 0,0 l/m 0 min 0 min 0 W/m 45,1 km/h (6 Bft) 97,87 %
04.03.2019 04:28 13,7 C 13,3 C 12,8 C 68 % 988,7 hPa 0,0 l/m 0 min 0 min 0 W/m 67,6 km/h (8 Bft) 97,83 %
04.03.2019 04:30 13,8 C 13,3 C 12,8 C 68 % 988,7 hPa 0,0 l/m 0 min 0 min 0 W/m 70,8 km/h (8 Bft) 97,87 %
04.03.2019 04:32 13,8 C 13,3 C 12,8 C 68 % 988,6 hPa 0,0 l/m 0 min 0 min 0 W/m 41,8 km/h (6 Bft) 97,87 %
04.03.2019 04:34 13,9 C 13,3 C 12,8 C 68 % 988,7 hPa 0,0 l/m 0 min 0 min 0 W/m 77,2 km/h (9 Bft) 97,87 %
04.03.2019 04:36 13,9 C 13,3 C 12,8 C 68 % 988,6 hPa 0,0 l/m 0 min 0 min 0 W/m 41,8 km/h (6 Bft) 94,92 %
04.03.2019 04:38 13,9 C 13,3 C 12,2 C 68 % 988,5 hPa 0,0 l/m 0 min 0 min 0 W/m 54,7 km/h (7 Bft) 94,12 %
04.03.2019 04:40 13,9 C 12,8 C 12,2 C 68 % 988,4 hPa 0,0 l/m 0 min 0 min 0 W/m 45,1 km/h (6 Bft) 95,74 %
04.03.2019 04:42 13,8 C 12,8 C 12,2 C 69 % 988,5 hPa 0,0 l/m 0 min 0 min 0 W/m 48,3 km/h (6 Bft) 95,74 %
04.03.2019 04:44 13,8 C 12,8 C 12,2 C 68 % 988,4 hPa 0,0 l/m 0 min 0 min 0 W/m 54,7 km/h (7 Bft) 93,62 %
04.03.2019 04:46 13,8 C 12,8 C 12,2 C 69 % 988,4 hPa 0,0 l/m 0 min 0 min 0 W/m 64,4 km/h (8 Bft) 95,74 %
04.03.2019 04:48 13,7 C 12,8 C 12,2 C 69 % 988,6 hPa 0,0 l/m 0 min 0 min 0 W/m 51,5 km/h (7 Bft) 94,00 %
04.03.2019 04:50 13,7 C 12,8 C 12,2 C 69 % 988,7 hPa 0,0 l/m 0 min 0 min 0 W/m 51,5 km/h (7 Bft) 93,48 %
04.03.2019 04:52 13,6 C 12,8 C 12,2 C 70 % 988,6 hPa 0,0 l/m 0 min 0 min 0 W/m 45,1 km/h (6 Bft) 93,62 %
04.03.2019 04:54 13,6 C 12,8 C 12,2 C 70 % 988,6 hPa 0,0 l/m 0 min 0 min 0 W/m 48,3 km/h (6 Bft) 95,74 %
04.03.2019 04:56 13,6 C 12,8 C 12,2 C 70 % 988,5 hPa 0,0 l/m 0 min 0 min 0 W/m 54,7 km/h (7 Bft) 93,62 %
04.03.2019 04:58 13,5 C 12,8 C 12,2 C 70 % 988,5 hPa 0,0 l/m 0 min 0 min 0 W/m 67,6 km/h (8 Bft) 93,62 %
04.03.2019 05:00 13,4 C 12,8 C 12,2 C 70 % 988,5 hPa 0,0 l/m 0 min 0 min 0 W/m 51,5 km/h (7 Bft) 91,49 %
04.03.2019 05:02 13,4 C 12,8 C 12,2 C 70 % 988,1 hPa 0,0 l/m 0 min 0 min 0 W/m 35,4 km/h (5 Bft) 93,48 %
04.03.2019 05:04 13,4 C 12,8 C 12,2 C 70 % 988,4 hPa 0,0 l/m 0 min 0 min 0 W/m 32,2 km/h (5 Bft) 93,62 %
04.03.2019 05:05 13,4 C 12,8 C 12,2 C 70 % 988,1 hPa 0,0 l/m 0 min 0 min 0 W/m 45,1 km/h (6 Bft) 96,49 %
04.03.2019 05:10 13,3 C 12,8 C 12,2 C 69 % 987,8 hPa 0,0 l/m 0 min 0 min 0 W/m 48,3 km/h (6 Bft) 94,74 %
04.03.2019 05:12 13,3 C 12,8 C 12,2 C 69 % 987,2 hPa 0,0 l/m 0 min 0 min 0 W/m 48,3 km/h (6 Bft) 91,67 %
04.03.2019 05:14 13,3 C 12,8 C 12,2 C 69 % 987,4 hPa 0,0 l/m 0 min 0 min 0 W/m 38,6 km/h (5 Bft) 95,74 %
04.03.2019 05:19 13,3 C 12,8 C 12,2 C 69 % 987,5 hPa 0,0 l/m 0 min 0 min 0 W/m 48,3 km/h (6 Bft) 97,10 %
04.03.2019 05:20 13,3 C 12,8 C 12,2 C 69 % 987,5 hPa 0,0 l/m 0 min 0 min 0 W/m 48,3 km/h (6 Bft) 95,83 %
04.03.2019 05:22 13,3 C 12,8 C 12,2 C 68 % 987,6 hPa 0,0 l/m 0 min 0 min 0 W/m 51,5 km/h (7 Bft) 100,00 %
04.03.2019 05:24 13,3 C 12,8 C 12,2 C 68 % 987,5 hPa 0,0 l/m 0 min 0 min 0 W/m 57,9 km/h (7 Bft) 97,83 %
04.03.2019 05:26 13,4 C 12,8 C 12,2 C 67 % 987,7 hPa 0,0 l/m 0 min 0 min 0 W/m 35,4 km/h (5 Bft) 97,87 %
04.03.2019 05:28 13,4 C 12,8 C 12,2 C 67 % 987,5 hPa 0,0 l/m 0 min 0 min 0 W/m 38,6 km/h (5 Bft) 95,74 %
04.03.2019 05:30 13,4 C 12,8 C 12,2 C 67 % 987,4 hPa 0,0 l/m 0 min 0 min 0 W/m 64,4 km/h (8 Bft) 95,74 %
04.03.2019 05:32 13,5 C 12,8 C 12,2 C 67 % 987,5 hPa 0,0 l/m 0 min 0 min 0 W/m 54,7 km/h (7 Bft) 97,87 %
04.03.2019 05:34 13,5 C 12,8 C 12,2 C 67 % 987,6 hPa 0,0 l/m 0 min 0 min 0 W/m 48,3 km/h (6 Bft) 97,87 %
04.03.2019 05:36 13,5 C 12,8 C 12,2 C 66 % 987,6 hPa 0,0 l/m 0 min 0 min 0 W/m 48,3 km/h (6 Bft) 97,83 %
04.03.2019 05:38 13,5 C 12,8 C 12,2 C 66 % 987,5 hPa 0,0 l/m 0 min 0 min 0 W/m 64,4 km/h (8 Bft) 95,74 %
04.03.2019 05:40 13,5 C 12,8 C 12,2 C 66 % 987,5 hPa 0,0 l/m 0 min 0 min 0 W/m 45,1 km/h (6 Bft) 97,87 %
04.03.2019 05:42 13,5 C 12,8 C 12,2 C 66 % 987,4 hPa 0,0 l/m 0 min 0 min 0 W/m 41,8 km/h (6 Bft) 97,87 %
04.03.2019 05:44 13,5 C 12,8 C 12,2 C 66 % 987,4 hPa 0,0 l/m 0 min 0 min 0 W/m 41,8 km/h (6 Bft) 97,87 %
04.03.2019 05:46 13,5 C 12,8 C 12,2 C 66 % 987,5 hPa 0,0 l/m 0 min 0 min 0 W/m 45,1 km/h (6 Bft) 97,87 %
04.03.2019 05:48 13,4 C 12,8 C 12,2 C 66 % 987,4 hPa 0,0 l/m 0 min 0 min 0 W/m 64,4 km/h (8 Bft) 100,00 %
04.03.2019 05:50 13,4 C 12,8 C 12,2 C 66 % 987,4 hPa 0,0 l/m 0 min 0 min 0 W/m 64,4 km/h (8 Bft) 100,00 %
04.03.2019 05:52 13,4 C 12,8 C 12,2 C 66 % 987,4 hPa 0,0 l/m 0 min 0 min 0 W/m 61,2 km/h (7 Bft) 100,00 %
04.03.2019 05:54 13,4 C 12,8 C 12,2 C 66 % 987,4 hPa 0,0 l/m 0 min 0 min 0 W/m 45,1 km/h (6 Bft) 100,00 %
04.03.2019 05:56 13,4 C 12,8 C 12,2 C 66 % 987,2 hPa 0,0 l/m 0 min 0 min 0 W/m 51,5 km/h (7 Bft) 97,87 %
04.03.2019 05:58 13,4 C 12,8 C 12,2 C 67 % 987,1 hPa 0,0 l/m 0 min 0 min 0 W/m 51,5 km/h (7 Bft) 100,00 %
04.03.2019 06:00 13,4 C 12,8 C 12,2 C 67 % 987,2 hPa 0,0 l/m 0 min 0 min 0 W/m 35,4 km/h (5 Bft) 100,00 %
04.03.2019 06:02 13,3 C 12,8 C 11,7 C 67 % 987,2 hPa 0,0 l/m 0 min 0 min 0 W/m 48,3 km/h (6 Bft) 100,00 %
04.03.2019 06:04 13,3 C 12,8 C 12,2 C 67 % 987,1 hPa 0,0 l/m 0 min 0 min 0 W/m 93,3 km/h (10 Bft) 97,87 %
04.03.2019 06:08 13,3 C 12,2 C 11,7 C 67 % 987,1 hPa 0,0 l/m 0 min 0 min 0 W/m 48,3 km/h (6 Bft) 100,00 %
04.03.2019 06:10 13,3 C 12,2 C 11,7 C 67 % 987,0 hPa 0,0 l/m 0 min 0 min 0 W/m 41,8 km/h (6 Bft) 100,00 %
04.03.2019 06:12 13,2 C 12,8 C 11,7 C 67 % 987,0 hPa 0,0 l/m 0 min 0 min 0 W/m 61,2 km/h (7 Bft) 100,00 %
04.03.2019 06:14 13,2 C 12,2 C 11,7 C 67 % 987,0 hPa 0,0 l/m 0 min 0 min 0 W/m 41,8 km/h (6 Bft) 100,00 %
04.03.2019 06:16 13,2 C 12,8 C 11,7 C 67 % 987,1 hPa 0,0 l/m 0 min 0 min 0 W/m 57,9 km/h (7 Bft) 100,00 %
04.03.2019 06:18 13,2 C 12,2 C 11,7 C 67 % 987,0 hPa 0,0 l/m 0 min 0 min 0 W/m 41,8 km/h (6 Bft) 100,00 %
04.03.2019 06:20 13,2 C 12,2 C 11,7 C 68 % 987,0 hPa 0,0 l/m 0 min 0 min 0 W/m 41,8 km/h (6 Bft) 100,00 %
04.03.2019 06:22 13,2 C 12,8 C 11,7 C 68 % 986,8 hPa 0,0 l/m 0 min 0 min 0 W/m 54,7 km/h (7 Bft) 95,65 %
04.03.2019 06:24 13,2 C 12,8 C 11,7 C 68 % 986,9 hPa 0,0 l/m 0 min 0 min 0 W/m 57,9 km/h (7 Bft) 97,87 %
04.03.2019 06:26 13,2 C 12,8 C 11,7 C 68 % 986,8 hPa 0,0 l/m 0 min 0 min 0 W/m 38,6 km/h (5 Bft) 100,00 %
04.03.2019 06:28 13,2 C 12,8 C 11,7 C 68 % 986,9 hPa 0,0 l/m 0 min 0 min 0 W/m 41,8 km/h (6 Bft) 100,00 %
04.03.2019 06:30 13,2 C 12,8 C 11,7 C 68 % 986,7 hPa 0,0 l/m 0 min 0 min 0 W/m 38,6 km/h (5 Bft) 100,00 %
04.03.2019 06:32 13,2 C 12,8 C 11,7 C 68 % 986,7 hPa 0,0 l/m 0 min 0 min 0 W/m 45,1 km/h (6 Bft) 100,00 %
04.03.2019 06:34 13,2 C 12,8 C 11,7 C 68 % 986,5 hPa 0,0 l/m 0 min 0 min 0 W/m 45,1 km/h (6 Bft) 100,00 %
04.03.2019 06:36 13,2 C 12,2 C 11,7 C 68 % 986,5 hPa 0,0 l/m 0 min 0 min 0 W/m 38,6 km/h (5 Bft) 97,87 %
04.03.2019 06:38 13,2 C 12,2 C 11,7 C 68 % 986,4 hPa 0,0 l/m 0 min 0 min 0 W/m 48,3 km/h (6 Bft) 100,00 %
04.03.2019 06:40 13,1 C 12,2 C 11,7 C 68 % 986,3 hPa 0,0 l/m 0 min 0 min 0 W/m 22,5 km/h (4 Bft) 100,00 %
04.03.2019 06:42 13,1 C 12,2 C 11,1 C 68 % 986,4 hPa 0,0 l/m 0 min 2 min 0 W/m 51,5 km/h (7 Bft) 100,00 %
04.03.2019 06:44 13,1 C 11,7 C 11,1 C 69 % 986,4 hPa 0,0 l/m 0 min 2 min 0 W/m 61,2 km/h (7 Bft) 100,00 %
04.03.2019 06:46 13,1 C 10,6 C 10,6 C 70 % 986,3 hPa 0,0 l/m 0 min 2 min 0 W/m 54,7 km/h (7 Bft) 100,00 %
04.03.2019 06:48 13,0 C 9,4 C 9,4 C 71 % 986,4 hPa 0,0 l/m 0 min 2 min 0 W/m 35,4 km/h (5 Bft) 100,00 %
04.03.2019 06:50 12,7 C 7,2 C 7,2 C 73 % 987,7 hPa 0,4 l/m 0 min 2 min 0 W/m 74,0 km/h (8 Bft) 100,00 %
04.03.2019 06:52 11,9 C 6,1 C 6,1 C 73 % 988,2 hPa 0,4 l/m 0 min 2 min 0 W/m 41,8 km/h (6 Bft) 100,00 %
04.03.2019 06:54 11,2 C 6,1 C 5,6 C 75 % 988,0 hPa 0,4 l/m 0 min 2 min 0 W/m 32,2 km/h (5 Bft) 97,87 %
04.03.2019 06:56 10,5 C 5,6 C 5,6 C 77 % 988,1 hPa 0,0 l/m 0 min 2 min 0 W/m 29,0 km/h (5 Bft) 97,87 %
04.03.2019 06:58 10,0 C 5,6 C 5,6 C 78 % 988,1 hPa 0,2 l/m 0 min 2 min 0 W/m 22,5 km/h (4 Bft) 97,83 %
04.03.2019 07:00 9,6 C 6,1 C 5,6 C 80 % 988,2 hPa 0,0 l/m 0 min 2 min 0 W/m 38,6 km/h (5 Bft) 100,00 %
04.03.2019 07:02 9,3 C 6,1 C 5,6 C 81 % 988,1 hPa 0,2 l/m 0 min 2 min 0 W/m 29,0 km/h (5 Bft) 97,87 %
04.03.2019 07:04 8,9 C 6,1 C 5,6 C 82 % 988,3 hPa 0,0 l/m 0 min 2 min 0 W/m 25,7 km/h (4 Bft) 100,00 %
04.03.2019 07:06 8,7 C 5,6 C 5,6 C 84 % 988,4 hPa 0,0 l/m 0 min 2 min 0 W/m 32,2 km/h (5 Bft) 97,87 %
04.03.2019 07:08 8,5 C 5,6 C 5,6 C 84 % 988,3 hPa 0,0 l/m 0 min 2 min 0 W/m 38,6 km/h (5 Bft) 97,87 %
04.03.2019 07:10 8,4 C 5,6 C 5,6 C 85 % 988,4 hPa 0,2 l/m 0 min 2 min 0 W/m 25,7 km/h (4 Bft) 100,00 %
04.03.2019 07:12 8,2 C 5,6 C 5,6 C 86 % 988,2 hPa 0,0 l/m 0 min 2 min 0 W/m 35,4 km/h (5 Bft) 100,00 %
04.03.2019 07:14 8,1 C 5,6 C 5,6 C 86 % 988,5 hPa 0,2 l/m 0 min 2 min 0 W/m 54,7 km/h (7 Bft) 100,00 %
04.03.2019 07:16 7,9 C 5,6 C 5,6 C 86 % 988,4 hPa 0,0 l/m 0 min 2 min 0 W/m 45,1 km/h (6 Bft) 97,87 %
04.03.2019 07:18 7,8 C 5,6 C 5,0 C 87 % 988,4 hPa 0,2 l/m 0 min 2 min 0 W/m 35,4 km/h (5 Bft) 95,74 %
04.03.2019 07:20 7,7 C 5,6 C 5,0 C 87 % 988,2 hPa 0,2 l/m 0 min 2 min 0 W/m 45,1 km/h (6 Bft) 97,83 %
04.03.2019 07:22 7,6 C 5,6 C 5,0 C 87 % 988,2 hPa 0,0 l/m 0 min 2 min 0 W/m 51,5 km/h (7 Bft) 97,87 %
04.03.2019 07:24 7,6 C 5,6 C 5,0 C 87 % 988,2 hPa 0,0 l/m 0 min 2 min 0 W/m 57,9 km/h (7 Bft) 97,87 %
04.03.2019 07:26 7,5 C 5,6 C 5,0 C 87 % 987,7 hPa 0,0 l/m 0 min 2 min 0 W/m 51,5 km/h (7 Bft) 95,74 %
04.03.2019 07:28 7,5 C 5,6 C 5,0 C 87 % 987,8 hPa 0,0 l/m 0 min 2 min 0 W/m 35,4 km/h (5 Bft) 95,74 %
04.03.2019 07:30 7,5 C 6,1 C 5,6 C 87 % 987,5 hPa 0,2 l/m 0 min 2 min 0 W/m 54,7 km/h (7 Bft) 95,74 %
04.03.2019 07:32 7,5 C 6,1 C 5,6 C 87 % 987,4 hPa 0,0 l/m 0 min 2 min 0 W/m 54,7 km/h (7 Bft) 95,65 %
04.03.2019 07:34 7,6 C 6,1 C 5,6 C 87 % 987,3 hPa 0,0 l/m 0 min 2 min 0 W/m 45,1 km/h (6 Bft) 93,62 %
04.03.2019 07:36 7,6 C 6,1 C 5,6 C 86 % 987,3 hPa 0,0 l/m 0 min 2 min 0 W/m 41,8 km/h (6 Bft) 95,74 %
04.03.2019 07:38 7,7 C 6,7 C 5,6 C 86 % 987,2 hPa 0,0 l/m 0 min 2 min 0 W/m 45,1 km/h (6 Bft) 95,74 %
04.03.2019 07:40 7,8 C 6,7 C 5,6 C 86 % 987,1 hPa 0,0 l/m 0 min 2 min 1 W/m 25,7 km/h (4 Bft) 95,74 %
04.03.2019 07:42 7,8 C 6,7 C 5,6 C 86 % 987,2 hPa 0,0 l/m 0 min 0 min 8 W/m 41,8 km/h (6 Bft) 95,74 %
04.03.2019 07:44 7,9 C 6,7 C 5,6 C 85 % 987,3 hPa 0,0 l/m 0 min 0 min 17 W/m 35,4 km/h (5 Bft) 95,65 %
04.03.2019 07:46 7,9 C 6,7 C 5,6 C 85 % 987,3 hPa 0,0 l/m 0 min 0 min 18 W/m 35,4 km/h (5 Bft) 95,74 %
04.03.2019 07:48 7,9 C 6,7 C 5,6 C 85 % 987,3 hPa 0,0 l/m 0 min 0 min 17 W/m 48,3 km/h (6 Bft) 93,62 %
04.03.2019 07:50 8,0 C 6,7 C 5,6 C 85 % 987,2 hPa 0,0 l/m 0 min 0 min 16 W/m 48,3 km/h (6 Bft) 97,87 %
04.03.2019 07:52 8,0 C 6,7 C 6,1 C 85 % 987,3 hPa 0,0 l/m 0 min 0 min 13 W/m 35,4 km/h (5 Bft) 93,62 %
04.03.2019 07:54 8,1 C 6,7 C 5,6 C 85 % 987,3 hPa 0,0 l/m 0 min 0 min 11 W/m 41,8 km/h (6 Bft) 95,74 %
04.03.2019 07:56 8,1 C 6,7 C 5,6 C 85 % 987,3 hPa 0,0 l/m 0 min 0 min 11 W/m 32,2 km/h (5 Bft) 97,83 %
04.03.2019 07:58 8,1 C 6,7 C 5,6 C 85 % 987,4 hPa 0,0 l/m 0 min 0 min 11 W/m 38,6 km/h (5 Bft) 95,74 %
04.03.2019 08:00 8,1 C 6,7 C 5,6 C 85 % 987,3 hPa 0,0 l/m 0 min 0 min 11 W/m 41,8 km/h (6 Bft) 97,87 %
04.03.2019 08:02 8,1 C 6,7 C 6,1 C 85 % 987,3 hPa 0,0 l/m 0 min 0 min 12 W/m 41,8 km/h (6 Bft) 97,87 %
04.03.2019 08:04 8,2 C 6,7 C 6,1 C 85 % 987,3 hPa 0,0 l/m 0 min 0 min 12 W/m 51,5 km/h (7 Bft) 97,87 %
04.03.2019 08:06 8,2 C 6,7 C 6,1 C 85 % 987,4 hPa 0,0 l/m 0 min 0 min 12 W/m 29,0 km/h (5 Bft) 97,87 %
04.03.2019 08:08 8,2 C 7,2 C 6,1 C 84 % 987,3 hPa 0,0 l/m 0 min 0 min 13 W/m 48,3 km/h (6 Bft) 97,83 %
04.03.2019 08:10 8,3 C 7,2 C 6,1 C 84 % 987,4 hPa 0,0 l/m 0 min 0 min 15 W/m 51,5 km/h (7 Bft) 95,74 %
04.03.2019 08:12 8,3 C 7,2 C 6,1 C 84 % 987,4 hPa 0,0 l/m 0 min 0 min 18 W/m 38,6 km/h (5 Bft) 97,87 %
04.03.2019 08:14 8,4 C 7,8 C 6,1 C 84 % 987,6 hPa 0,0 l/m 0 min 0 min 22 W/m 38,6 km/h (5 Bft) 97,87 %
04.03.2019 08:16 8,4 C 7,8 C 6,1 C 84 % 987,4 hPa 0,0 l/m 0 min 0 min 30 W/m 19,3 km/h (3 Bft) 100,00 %
04.03.2019 08:18 8,4 C 7,8 C 6,1 C 84 % 987,4 hPa 0,0 l/m 0 min 0 min 42 W/m 32,2 km/h (5 Bft) 100,00 %
04.03.2019 08:20 8,4 C 8,3 C 6,7 C 84 % 987,5 hPa 0,0 l/m 0 min 0 min 60 W/m 29,0 km/h (5 Bft) 97,87 %
04.03.2019 08:22 8,4 C 8,3 C 6,7 C 84 % 987,4 hPa 0,0 l/m 0 min 0 min 76 W/m 35,4 km/h (5 Bft) 100,00 %
04.03.2019 08:24 8,4 C 8,3 C 6,7 C 84 % 987,3 hPa 0,0 l/m 2 min 0 min 87 W/m 38,6 km/h (5 Bft) 100,00 %
04.03.2019 08:26 8,5 C 8,9 C 7,2 C 84 % 987,3 hPa 0,0 l/m 2 min 0 min 105 W/m 38,6 km/h (5 Bft) 100,00 %
04.03.2019 08:28 8,6 C 8,9 C 7,8 C 84 % 987,3 hPa 0,0 l/m 2 min 0 min 119 W/m 25,7 km/h (4 Bft) 95,74 %
04.03.2019 08:30 8,7 C 9,4 C 7,8 C 83 % 987,3 hPa 0,0 l/m 2 min 0 min 125 W/m 32,2 km/h (5 Bft) 100,00 %
04.03.2019 08:32 8,8 C 9,4 C 8,3 C 83 % 987,3 hPa 0,0 l/m 2 min 0 min 114 W/m 22,5 km/h (4 Bft) 100,00 %
04.03.2019 08:34 8,9 C 9,4 C 8,3 C 83 % 987,3 hPa 0,0 l/m 2 min 0 min 97 W/m 35,4 km/h (5 Bft) 97,87 %
04.03.2019 08:36 8,9 C 9,4 C 8,3 C 82 % 987,3 hPa 0,0 l/m 0 min 0 min 84 W/m 45,1 km/h (6 Bft) 93,62 %
04.03.2019 08:38 9,1 C 9,4 C 8,3 C 81 % 987,4 hPa 0,0 l/m 0 min 0 min 77 W/m 41,8 km/h (6 Bft) 97,87 %
04.03.2019 08:40 9,1 C 9,4 C 8,3 C 81 % 987,4 hPa 0,0 l/m 0 min 0 min 72 W/m 41,8 km/h (6 Bft) 97,87 %
04.03.2019 08:42 9,2 C 9,4 C 8,3 C 81 % 987,6 hPa 0,0 l/m 0 min 0 min 69 W/m 22,5 km/h (4 Bft) 97,83 %
04.03.2019 08:44 9,2 C 9,4 C 8,3 C 80 % 987,6 hPa 0,0 l/m 0 min 0 min 69 W/m 32,2 km/h (5 Bft) 97,87 %
04.03.2019 08:46 9,3 C 9,4 C 8,3 C 80 % 987,5 hPa 0,0 l/m 0 min 0 min 66 W/m 61,2 km/h (7 Bft) 97,87 %
04.03.2019 08:48 9,3 C 9,4 C 8,3 C 79 % 987,7 hPa 0,0 l/m 0 min 0 min 44 W/m 25,7 km/h (4 Bft) 95,74 %
04.03.2019 08:50 9,4 C 9,4 C 8,3 C 79 % 987,8 hPa 0,0 l/m 0 min 0 min 40 W/m 41,8 km/h (6 Bft) 95,74 %
04.03.2019 08:52 9,4 C 9,4 C 8,3 C 79 % 987,7 hPa 0,0 l/m 0 min 0 min 47 W/m 25,7 km/h (4 Bft) 97,87 %
04.03.2019 08:54 9,5 C 9,4 C 8,3 C 78 % 987,5 hPa 0,0 l/m 0 min 0 min 61 W/m 38,6 km/h (5 Bft) 97,83 %
04.03.2019 08:56 9,5 C 9,4 C 8,3 C 78 % 987,5 hPa 0,0 l/m 0 min 0 min 87 W/m 35,4 km/h (5 Bft) 97,87 %
04.03.2019 08:58 9,6 C 9,4 C 8,9 C 77 % 987,3 hPa 0,0 l/m 0 min 0 min 95 W/m 48,3 km/h (6 Bft) 95,74 %
04.03.2019 09:00 9,7 C 9,4 C 8,9 C 76 % 987,8 hPa 0,0 l/m 0 min 0 min 89 W/m 67,6 km/h (8 Bft) 97,87 %
04.03.2019 09:02 9,7 C 9,4 C 8,9 C 76 % 987,6 hPa 0,0 l/m 0 min 0 min 75 W/m 29,0 km/h (5 Bft) 97,87 %
04.03.2019 09:04 9,7 C 9,4 C 8,9 C 76 % 987,7 hPa 0,0 l/m 0 min 0 min 66 W/m 41,8 km/h (6 Bft) 97,87 %
04.03.2019 09:06 9,8 C 9,4 C 8,9 C 76 % 987,7 hPa 0,0 l/m 0 min 0 min 69 W/m 29,0 km/h (5 Bft) 93,48 %
04.03.2019 09:08 9,8 C 9,4 C 8,9 C 76 % 987,8 hPa 0,0 l/m 0 min 0 min 62 W/m 35,4 km/h (5 Bft) 97,87 %
04.03.2019 09:10 9,8 C 9,4 C 8,9 C 75 % 987,8 hPa 0,0 l/m 0 min 0 min 60 W/m 35,4 km/h (5 Bft) 97,87 %
04.03.2019 09:12 9,8 C 10,0 C 8,9 C 75 % 987,9 hPa 0,0 l/m 0 min 0 min 95 W/m 48,3 km/h (6 Bft) 97,87 %
04.03.2019 09:14 9,8 C 10,0 C 8,9 C 75 % 987,9 hPa 0,0 l/m 0 min 0 min 138 W/m 45,1 km/h (6 Bft) 97,87 %
04.03.2019 09:16 9,9 C 10,0 C 8,9 C 75 % 987,9 hPa 0,0 l/m 0 min 0 min 139 W/m 41,8 km/h (6 Bft) 97,87 %
04.03.2019 09:18 9,9 C 10,6 C 8,9 C 76 % 987,9 hPa 0,0 l/m 0 min 0 min 108 W/m 32,2 km/h (5 Bft) 97,83 %
04.03.2019 09:20 9,9 C 11,7 C 8,9 C 76 % 988,0 hPa 0,0 l/m 2 min 0 min 156 W/m 25,7 km/h (4 Bft) 97,87 %
04.03.2019 09:22 9,9 C 12,8 C 8,9 C 75 % 987,9 hPa 0,0 l/m 2 min 0 min 334 W/m 32,2 km/h (5 Bft) 95,74 %
04.03.2019 09:24 10,0 C 12,8 C 9,4 C 76 % 988,0 hPa 0,0 l/m 2 min 0 min 337 W/m 25,7 km/h (4 Bft) 97,87 %
04.03.2019 09:26 10,1 C 12,8 C 9,4 C 75 % 987,9 hPa 0,0 l/m 2 min 0 min 313 W/m 32,2 km/h (5 Bft) 93,62 %
04.03.2019 09:28 10,2 C 12,8 C 9,4 C 74 % 988,1 hPa 0,0 l/m 2 min 0 min 320 W/m 45,1 km/h (6 Bft) 95,74 %
04.03.2019 09:30 10,3 C 12,2 C 9,4 C 74 % 988,0 hPa 0,0 l/m 2 min 0 min 331 W/m 38,6 km/h (5 Bft) 100,00 %
04.03.2019 09:32 10,3 C 12,2 C 9,4 C 73 % 987,9 hPa 0,0 l/m 2 min 0 min 313 W/m 32,2 km/h (5 Bft) 100,00 %
04.03.2019 09:34 10,4 C 13,3 C 10,0 C 73 % 987,9 hPa 0,0 l/m 2 min 0 min 318 W/m 35,4 km/h (5 Bft) 100,00 %
04.03.2019 09:36 10,4 C 12,8 C 11,1 C 72 % 987,9 hPa 0,0 l/m 2 min 0 min 354 W/m 51,5 km/h (7 Bft) 100,00 %
04.03.2019 09:38 10,5 C 12,8 C 11,1 C 72 % 987,9 hPa 0,0 l/m 2 min 0 min 384 W/m 29,0 km/h (5 Bft) 97,87 %
04.03.2019 09:40 10,6 C 12,2 C 11,1 C 71 % 988,1 hPa 0,0 l/m 2 min 0 min 403 W/m 70,8 km/h (8 Bft) 100,00 %
04.03.2019 09:42 10,7 C 11,7 C 10,6 C 71 % 988,0 hPa 0,0 l/m 2 min 0 min 391 W/m 29,0 km/h (5 Bft) 97,87 %
04.03.2019 09:44 10,7 C 11,7 C 10,6 C 70 % 988,1 hPa 0,0 l/m 0 min 0 min 142 W/m 57,9 km/h (7 Bft) 95,74 %
04.03.2019 09:46 10,7 C 11,7 C 10,6 C 70 % 988,1 hPa 0,0 l/m 2 min 0 min 203 W/m 61,2 km/h (7 Bft) 100,00 %
04.03.2019 09:48 10,7 C 11,1 C 10,0 C 70 % 987,9 hPa 0,0 l/m 2 min 0 min 388 W/m 51,5 km/h (7 Bft) 100,00 %
04.03.2019 09:50 10,7 C 10,6 C 10,0 C 70 % 987,9 hPa 0,0 l/m 0 min 0 min 137 W/m 61,2 km/h (7 Bft) 100,00 %
04.03.2019 09:52 10,7 C 11,1 C 10,0 C 70 % 988,0 hPa 0,0 l/m 0 min 0 min 144 W/m 32,2 km/h (5 Bft) 97,83 %
04.03.2019 09:54 10,7 C 11,1 C 10,0 C 70 % 987,9 hPa 0,0 l/m 2 min 0 min 194 W/m 45,1 km/h (6 Bft) 97,87 %
04.03.2019 09:56 10,6 C 10,6 C 10,0 C 70 % 988,0 hPa 0,0 l/m 0 min 0 min 182 W/m 64,4 km/h (8 Bft) 100,00 %
04.03.2019 09:58 10,6 C 10,6 C 10,0 C 70 % 988,1 hPa 0,0 l/m 0 min 0 min 174 W/m 41,8 km/h (6 Bft) 97,87 %
04.03.2019 10:00 10,6 C 10,6 C 10,0 C 71 % 988,0 hPa 0,0 l/m 2 min 0 min 225 W/m 51,5 km/h (7 Bft) 100,00 %
04.03.2019 10:02 10,6 C 11,1 C 10,0 C 70 % 988,1 hPa 0,0 l/m 2 min 0 min 206 W/m 74,0 km/h (8 Bft) 97,87 %
04.03.2019 10:04 10,6 C 11,1 C 10,0 C 71 % 987,8 hPa 0,0 l/m 2 min 0 min 221 W/m 29,0 km/h (5 Bft) 95,65 %
04.03.2019 10:06 10,6 C 10,6 C 10,0 C 70 % 987,9 hPa 0,0 l/m 2 min 0 min 229 W/m 51,5 km/h (7 Bft) 95,74 %
04.03.2019 10:08 10,6 C 10,6 C 10,0 C 71 % 988,0 hPa 0,0 l/m 0 min 0 min 180 W/m 45,1 km/h (6 Bft) 95,74 %
04.03.2019 10:10 10,6 C 10,6 C 10,0 C 71 % 987,9 hPa 0,0 l/m 0 min 0 min 171 W/m 51,5 km/h (7 Bft) 93,62 %
04.03.2019 10:12 10,6 C 10,0 C 10,0 C 71 % 987,9 hPa 0,0 l/m 0 min 2 min 157 W/m 51,5 km/h (7 Bft) 95,74 %
04.03.2019 10:14 10,6 C 10,0 C 9,4 C 71 % 988,0 hPa 0,0 l/m 0 min 2 min 130 W/m 48,3 km/h (6 Bft) 95,74 %
04.03.2019 10:16 10,5 C 9,4 C 8,9 C 71 % 988,0 hPa 0,0 l/m 0 min 2 min 96 W/m 51,5 km/h (7 Bft) 95,65 %
04.03.2019 10:18 10,4 C 7,8 C 7,8 C 72 % 988,2 hPa 0,0 l/m 0 min 2 min 89 W/m 61,2 km/h (7 Bft) 95,74 %
04.03.2019 10:20 10,3 C 7,2 C 7,2 C 73 % 988,1 hPa 0,0 l/m 0 min 2 min 87 W/m 51,5 km/h (7 Bft) 97,87 %
04.03.2019 10:22 10,2 C 7,2 C 7,2 C 74 % 988,1 hPa 0,0 l/m 0 min 2 min 89 W/m 61,2 km/h (7 Bft) 95,74 %
04.03.2019 10:24 10,1 C 7,2 C 7,2 C 75 % 988,3 hPa 0,0 l/m 0 min 2 min 70 W/m 29,0 km/h (5 Bft) 95,74 %
04.03.2019 10:26 10,0 C 7,2 C 7,2 C 76 % 988,2 hPa 0,0 l/m 0 min 2 min 69 W/m 38,6 km/h (5 Bft) 95,74 %
04.03.2019 10:28 9,9 C 7,2 C 6,7 C 76 % 988,3 hPa 0,0 l/m 0 min 2 min 66 W/m 25,7 km/h (4 Bft) 93,48 %
04.03.2019 10:30 9,9 C 7,2 C 6,7 C 77 % 988,3 hPa 0,0 l/m 0 min 2 min 56 W/m 22,5 km/h (4 Bft) 95,74 %
04.03.2019 10:32 9,8 C 7,2 C 6,7 C 77 % 988,3 hPa 0,0 l/m 0 min 2 min 67 W/m 29,0 km/h (5 Bft) 93,62 %
04.03.2019 10:34 9,7 C 7,2 C 6,7 C 77 % 988,3 hPa 0,0 l/m 0 min 2 min 79 W/m 29,0 km/h (5 Bft) 93,62 %
04.03.2019 10:36 9,6 C 7,2 C 6,7 C 78 % 988,2 hPa 0,2 l/m 0 min 2 min 114 W/m 45,1 km/h (6 Bft) 95,74 %
04.03.2019 10:38 9,6 C 7,2 C 6,7 C 78 % 988,3 hPa 0,0 l/m 0 min 2 min 127 W/m 32,2 km/h (5 Bft) 95,74 %
04.03.2019 10:40 9,6 C 7,2 C 6,7 C 78 % 988,4 hPa 0,0 l/m 0 min 2 min 119 W/m 35,4 km/h (5 Bft) 95,65 %
04.03.2019 10:42 9,4 C 7,2 C 6,7 C 78 % 988,3 hPa 0,0 l/m 0 min 2 min 100 W/m 74,0 km/h (8 Bft) 93,62 %
04.03.2019 10:44 9,4 C 7,2 C 6,7 C 78 % 988,3 hPa 0,0 l/m 0 min 2 min 85 W/m 57,9 km/h (7 Bft) 95,74 %
04.03.2019 10:46 9,4 C 7,2 C 7,2 C 78 % 988,2 hPa 0,0 l/m 0 min 2 min 94 W/m 29,0 km/h (5 Bft) 93,62 %
04.03.2019 10:48 9,4 C 7,2 C 7,2 C 79 % 988,2 hPa 0,0 l/m 0 min 2 min 114 W/m 32,2 km/h (5 Bft) 95,74 %
04.03.2019 10:50 9,4 C 7,2 C 7,2 C 79 % 988,2 hPa 0,0 l/m 0 min 2 min 138 W/m 57,9 km/h (7 Bft) 95,74 %
04.03.2019 10:52 9,4 C 7,8 C 7,2 C 79 % 988,1 hPa 0,0 l/m 0 min 2 min 157 W/m 48,3 km/h (6 Bft) 93,48 %
04.03.2019 10:54 9,4 C 7,8 C 7,2 C 79 % 988,1 hPa 0,0 l/m 0 min 2 min 162 W/m 48,3 km/h (6 Bft) 97,87 %
04.03.2019 10:56 9,4 C 8,3 C 7,8 C 79 % 988,1 hPa 0,0 l/m 0 min 2 min 157 W/m 48,3 km/h (6 Bft) 97,87 %
04.03.2019 10:58 9,4 C 8,9 C 7,8 C 79 % 988,1 hPa 0,0 l/m 0 min 2 min 127 W/m 22,5 km/h (4 Bft) 93,62 %
04.03.2019 11:00 9,4 C 8,3 C 7,8 C 79 % 988,0 hPa 0,0 l/m 0 min 2 min 78 W/m 32,2 km/h (5 Bft) 97,87 %
04.03.2019 11:02 9,4 C 8,3 C 7,2 C 79 % 988,1 hPa 0,0 l/m 0 min 2 min 68 W/m 32,2 km/h (5 Bft) 97,83 %
04.03.2019 11:04 9,4 C 7,8 C 7,2 C 79 % 988,0 hPa 0,0 l/m 0 min 2 min 62 W/m 38,6 km/h (5 Bft) 100,00 %
04.03.2019 11:06 9,4 C 7,2 C 6,7 C 80 % 988,0 hPa 0,0 l/m 0 min 2 min 64 W/m 32,2 km/h (5 Bft) 100,00 %
04.03.2019 11:08 9,4 C 7,2 C 6,7 C 80 % 988,0 hPa 0,0 l/m 0 min 2 min 68 W/m 35,4 km/h (5 Bft) 100,00 %
04.03.2019 11:10 9,4 C 7,8 C 6,7 C 80 % 988,0 hPa 0,0 l/m 0 min 2 min 80 W/m 45,1 km/h (6 Bft) 97,87 %
04.03.2019 11:12 9,4 C 7,8 C 6,7 C 79 % 988,0 hPa 0,0 l/m 0 min 2 min 90 W/m 38,6 km/h (5 Bft) 95,74 %
04.03.2019 11:14 9,4 C 7,8 C 6,7 C 79 % 987,8 hPa 0,0 l/m 0 min 2 min 96 W/m 51,5 km/h (7 Bft) 100,00 %
04.03.2019 11:16 9,4 C 7,8 C 7,2 C 79 % 988,0 hPa 0,0 l/m 0 min 2 min 96 W/m 32,2 km/h (5 Bft) 97,87 %
04.03.2019 11:18 9,4 C 7,8 C 7,2 C 80 % 988,0 hPa 0,0 l/m 0 min 2 min 101 W/m 32,2 km/h (5 Bft) 100,00 %
04.03.2019 11:20 9,4 C 7,2 C 6,7 C 80 % 987,9 hPa 0,0 l/m 0 min 2 min 101 W/m 41,8 km/h (6 Bft) 100,00 %
04.03.2019 11:22 9,4 C 7,2 C 6,7 C 80 % 987,8 hPa 0,0 l/m 0 min 2 min 111 W/m 35,4 km/h (5 Bft) 100,00 %
04.03.2019 11:24 9,4 C 7,8 C 6,7 C 80 % 987,7 hPa 0,0 l/m 0 min 2 min 124 W/m 51,5 km/h (7 Bft) 100,00 %
04.03.2019 11:26 9,4 C 7,8 C 6,7 C 80 % 987,8 hPa 0,0 l/m 0 min 2 min 145 W/m 48,3 km/h (6 Bft) 100,00 %
04.03.2019 11:28 9,4 C 7,8 C 7,2 C 80 % 987,7 hPa 0,0 l/m 0 min 2 min 179 W/m 35,4 km/h (5 Bft) 100,00 %
04.03.2019 11:30 9,4 C 7,8 C 7,2 C 81 % 987,9 hPa 0,0 l/m 0 min 2 min 185 W/m 29,0 km/h (5 Bft) 100,00 %
04.03.2019 11:32 9,4 C 8,3 C 7,2 C 81 % 987,9 hPa 0,0 l/m 0 min 2 min 175 W/m 41,8 km/h (6 Bft) 100,00 %
04.03.2019 11:34 9,4 C 8,3 C 7,2 C 81 % 987,6 hPa 0,0 l/m 0 min 2 min 189 W/m 35,4 km/h (5 Bft) 100,00 %
04.03.2019 11:36 9,4 C 8,9 C 7,8 C 81 % 987,7 hPa 0,0 l/m 0 min 2 min 192 W/m 45,1 km/h (6 Bft) 100,00 %
04.03.2019 11:38 9,4 C 9,4 C 8,3 C 81 % 987,8 hPa 0,0 l/m 0 min 2 min 231 W/m 51,5 km/h (7 Bft) 100,00 %
04.03.2019 11:40 9,5 C 10,0 C 8,3 C 81 % 987,6 hPa 0,0 l/m 2 min 2 min 319 W/m 35,4 km/h (5 Bft) 100,00 %
04.03.2019 11:42 9,6 C 11,1 C 8,9 C 81 % 987,7 hPa 0,0 l/m 2 min 2 min 391 W/m 32,2 km/h (5 Bft) 100,00 %
04.03.2019 11:44 9,7 C 10,6 C 9,4 C 81 % 987,9 hPa 0,0 l/m 2 min 2 min 318 W/m 57,9 km/h (7 Bft) 100,00 %
04.03.2019 11:46 9,8 C 10,0 C 8,9 C 80 % 987,8 hPa 0,0 l/m 0 min 2 min 209 W/m 45,1 km/h (6 Bft) 100,00 %
04.03.2019 11:48 9,8 C 9,4 C 8,9 C 79 % 987,8 hPa 0,0 l/m 0 min 2 min 149 W/m 51,5 km/h (7 Bft) 100,00 %
04.03.2019 11:50 9,9 C 9,4 C 8,3 C 80 % 988,0 hPa 0,0 l/m 0 min 2 min 74 W/m 38,6 km/h (5 Bft) 100,00 %
04.03.2019 11:52 9,9 C 8,9 C 7,8 C 80 % 988,3 hPa 0,0 l/m 0 min 2 min 46 W/m 38,6 km/h (5 Bft) 100,00 %
04.03.2019 11:54 9,7 C 6,1 C 5,6 C 79 % 988,9 hPa 0,2 l/m 0 min 2 min 28 W/m 61,2 km/h (7 Bft) 100,00 %
04.03.2019 11:56 9,1 C 4,4 C 4,4 C 78 % 989,5 hPa 0,6 l/m 0 min 2 min 40 W/m 54,7 km/h (7 Bft) 97,87 %
04.03.2019 11:58 8,6 C 4,4 C 4,4 C 79 % 989,3 hPa 0,2 l/m 0 min 2 min 55 W/m 29,0 km/h (5 Bft) 97,87 %
04.03.2019 12:00 8,2 C 4,4 C 4,4 C 81 % 989,3 hPa 0,0 l/m 0 min 2 min 49 W/m 22,5 km/h (4 Bft) 97,87 %
04.03.2019 12:02 7,9 C 4,4 C 4,4 C 82 % 989,2 hPa 0,2 l/m 0 min 2 min 55 W/m 19,3 km/h (3 Bft) 97,83 %
04.03.2019 12:04 7,7 C 5,0 C 4,4 C 83 % 989,2 hPa 0,0 l/m 0 min 2 min 80 W/m 16,1 km/h (3 Bft) 97,87 %
04.03.2019 12:07 7,4 C 5,0 C 5,0 C 85 % 989,1 hPa 0,0 l/m 0 min 3 min 123 W/m 22,5 km/h (4 Bft) 95,71 %
04.03.2019 12:08 7,3 C 5,0 C 5,0 C 85 % 989,1 hPa 0,0 l/m 0 min 1 min 133 W/m 16,1 km/h (3 Bft) 95,83 %
04.03.2019 12:10 7,2 C 5,0 C 5,0 C 86 % 989,1 hPa 0,2 l/m 0 min 2 min 106 W/m 25,7 km/h (4 Bft) 95,74 %
04.03.2019 12:12 7,1 C 5,0 C 5,0 C 87 % 989,3 hPa 0,0 l/m 0 min 2 min 77 W/m 32,2 km/h (5 Bft) 95,65 %
04.03.2019 12:14 6,9 C 5,0 C 5,0 C 87 % 989,4 hPa 0,0 l/m 0 min 2 min 51 W/m 16,1 km/h (3 Bft) 97,87 %
04.03.2019 12:16 6,8 C 5,0 C 5,0 C 88 % 989,4 hPa 0,2 l/m 0 min 2 min 38 W/m 19,3 km/h (3 Bft) 97,87 %
04.03.2019 12:18 6,8 C 5,0 C 5,0 C 88 % 989,5 hPa 0,0 l/m 0 min 2 min 65 W/m 19,3 km/h (3 Bft) 97,87 %
04.03.2019 12:20 6,7 C 5,0 C 5,0 C 89 % 989,5 hPa 0,2 l/m 0 min 2 min 78 W/m 22,5 km/h (4 Bft) 97,87 %
04.03.2019 12:22 6,7 C 5,0 C 5,0 C 89 % 989,4 hPa 0,0 l/m 0 min 2 min 85 W/m 19,3 km/h (3 Bft) 95,74 %
04.03.2019 12:24 6,6 C 5,0 C 5,0 C 90 % 989,5 hPa 0,0 l/m 0 min 2 min 85 W/m 16,1 km/h (3 Bft) 97,83 %
04.03.2019 12:26 6,6 C 5,6 C 5,0 C 90 % 989,6 hPa 0,0 l/m 0 min 2 min 79 W/m 29,0 km/h (5 Bft) 97,87 %
04.03.2019 12:28 6,6 C 5,6 C 5,0 C 90 % 989,5 hPa 0,0 l/m 0 min 2 min 61 W/m 25,7 km/h (4 Bft) 97,87 %
04.03.2019 12:30 6,6 C 5,6 C 5,0 C 91 % 989,7 hPa 0,0 l/m 0 min 0 min 31 W/m 22,5 km/h (4 Bft) 97,87 %
04.03.2019 12:32 6,6 C 5,6 C 5,0 C 91 % 989,6 hPa 0,0 l/m 0 min 0 min 30 W/m 32,2 km/h (5 Bft) 97,87 %
04.03.2019 12:34 6,5 C 5,6 C 5,0 C 91 % 989,8 hPa 0,0 l/m 0 min 0 min 47 W/m 29,0 km/h (5 Bft) 97,87 %
04.03.2019 12:36 6,5 C 5,6 C 5,0 C 91 % 989,8 hPa 0,0 l/m 0 min 2 min 94 W/m 25,7 km/h (4 Bft) 97,83 %
04.03.2019 12:38 6,6 C 6,1 C 5,6 C 92 % 989,9 hPa 0,0 l/m 0 min 2 min 210 W/m 19,3 km/h (3 Bft) 97,22 %
04.03.2019 12:40 6,6 C 6,1 C 5,6 C 92 % 989,9 hPa 0,0 l/m 0 min 0 min 192 W/m 16,1 km/h (3 Bft) 97,83 %
04.03.2019 12:42 6,6 C 6,1 C 5,6 C 92 % 989,8 hPa 0,0 l/m 0 min 0 min 218 W/m 22,5 km/h (4 Bft) 97,87 %
04.03.2019 12:44 6,6 C 6,1 C 5,6 C 92 % 989,9 hPa 0,0 l/m 0 min 0 min 260 W/m 29,0 km/h (5 Bft) 97,87 %
04.03.2019 12:46 6,5 C 6,7 C 5,6 C 92 % 989,9 hPa 0,0 l/m 2 min 0 min 293 W/m 19,3 km/h (3 Bft) 97,87 %
04.03.2019 12:48 6,5 C 6,7 C 5,6 C 92 % 989,9 hPa 0,0 l/m 2 min 0 min 280 W/m 29,0 km/h (5 Bft) 95,74 %
04.03.2019 12:50 6,6 C 6,7 C 6,1 C 92 % 990,0 hPa 0,0 l/m 0 min 0 min 241 W/m 12,9 km/h (3 Bft) 95,74 %
04.03.2019 12:52 6,6 C 6,1 C 5,6 C 92 % 990,1 hPa 0,0 l/m 0 min 0 min 218 W/m 32,2 km/h (5 Bft) 95,65 %
04.03.2019 12:54 6,5 C 6,1 C 5,6 C 92 % 990,1 hPa 0,0 l/m 0 min 0 min 197 W/m 16,1 km/h (3 Bft) 97,87 %
04.03.2019 12:56 6,5 C 6,7 C 5,6 C 92 % 990,2 hPa 0,0 l/m 0 min 0 min 178 W/m 22,5 km/h (4 Bft) 91,49 %
04.03.2019 12:58 6,5 C 6,1 C 5,6 C 92 % 990,2 hPa 0,0 l/m 0 min 0 min 177 W/m 12,9 km/h (3 Bft) 91,49 %
04.03.2019 13:00 6,5 C 6,1 C 5,6 C 92 % 990,2 hPa 0,0 l/m 0 min 0 min 183 W/m 25,7 km/h (4 Bft) 95,74 %
04.03.2019 13:02 6,5 C 6,1 C 5,6 C 91 % 990,3 hPa 0,0 l/m 0 min 0 min 185 W/m 32,2 km/h (5 Bft) 97,87 %
04.03.2019 13:04 6,5 C 6,1 C 5,6 C 91 % 990,3 hPa 0,0 l/m 0 min 0 min 193 W/m 25,7 km/h (4 Bft) 93,48 %
04.03.2019 13:06 6,5 C 6,1 C 5,6 C 91 % 990,5 hPa 0,0 l/m 0 min 0 min 201 W/m 22,5 km/h (4 Bft) 94,92 %
04.03.2019 13:08 6,5 C 6,7 C 5,6 C 91 % 990,4 hPa 0,0 l/m 0 min 0 min 207 W/m 16,1 km/h (3 Bft) 94,29 %
04.03.2019 13:10 6,6 C 6,1 C 5,6 C 91 % 990,5 hPa 0,0 l/m 0 min 0 min 211 W/m 22,5 km/h (4 Bft) 95,74 %
04.03.2019 13:12 6,6 C 6,7 C 5,6 C 91 % 990,7 hPa 0,0 l/m 0 min 0 min 212 W/m 9,7 km/h (2 Bft) 93,62 %
04.03.2019 13:14 6,6 C 6,7 C 6,1 C 90 % 990,8 hPa 0,0 l/m 0 min 0 min 211 W/m 16,1 km/h (3 Bft) 95,74 %
04.03.2019 13:16 6,6 C 6,1 C 5,6 C 90 % 990,8 hPa 0,0 l/m 0 min 0 min 172 W/m 16,1 km/h (3 Bft) 95,65 %
04.03.2019 13:18 6,6 C 6,1 C 5,6 C 90 % 990,9 hPa 0,0 l/m 0 min 0 min 197 W/m 29,0 km/h (5 Bft) 95,74 %
04.03.2019 13:20 6,6 C 6,7 C 5,6 C 90 % 991,0 hPa 0,0 l/m 0 min 0 min 201 W/m 12,9 km/h (3 Bft) 93,62 %
04.03.2019 13:22 6,7 C 6,7 C 5,6 C 90 % 991,1 hPa 0,0 l/m 0 min 0 min 196 W/m 22,5 km/h (4 Bft) 95,74 %
04.03.2019 13:24 6,7 C 6,7 C 5,6 C 90 % 991,1 hPa 0,0 l/m 0 min 0 min 195 W/m 16,1 km/h (3 Bft) 97,87 %
04.03.2019 13:26 6,7 C 6,7 C 5,6 C 90 % 991,2 hPa 0,0 l/m 0 min 0 min 212 W/m 12,9 km/h (3 Bft) 93,48 %
04.03.2019 13:28 6,8 C 7,2 C 6,1 C 90 % 991,3 hPa 0,0 l/m 0 min 0 min 258 W/m 22,5 km/h (4 Bft) 95,74 %
04.03.2019 13:30 6,8 C 8,9 C 6,7 C 90 % 991,3 hPa 0,0 l/m 2 min 0 min 347 W/m 12,9 km/h (3 Bft) 93,62 %
04.03.2019 13:32 6,9 C 8,3 C 6,1 C 90 % 991,3 hPa 0,0 l/m 2 min 0 min 318 W/m 16,1 km/h (3 Bft) 95,74 %
04.03.2019 13:34 6,9 C 9,4 C 7,2 C 89 % 991,3 hPa 0,0 l/m 2 min 0 min 362 W/m 19,3 km/h (3 Bft) 95,74 %
04.03.2019 13:36 7,1 C 10,0 C 7,2 C 90 % 991,3 hPa 0,0 l/m 2 min 0 min 555 W/m 19,3 km/h (3 Bft) 96,55 %
04.03.2019 13:38 7,2 C 9,4 C 6,7 C 90 % 991,3 hPa 0,0 l/m 2 min 0 min 559 W/m 22,5 km/h (4 Bft) 94,29 %
04.03.2019 13:40 7,2 C 8,3 C 6,7 C 89 % 991,4 hPa 0,0 l/m 2 min 0 min 418 W/m 19,3 km/h (3 Bft) 97,87 %
04.03.2019 13:42 7,3 C 8,3 C 6,7 C 89 % 991,5 hPa 0,0 l/m 2 min 0 min 280 W/m 16,1 km/h (3 Bft) 97,87 %
04.03.2019 13:44 7,3 C 8,3 C 6,7 C 89 % 991,5 hPa 0,0 l/m 2 min 0 min 278 W/m 29,0 km/h (5 Bft) 95,74 %
04.03.2019 13:46 7,4 C 8,9 C 6,7 C 88 % 991,5 hPa 0,0 l/m 2 min 0 min 287 W/m 22,5 km/h (4 Bft) 97,87 %
04.03.2019 13:48 7,4 C 8,9 C 6,7 C 88 % 991,6 hPa 0,0 l/m 2 min 0 min 326 W/m 22,5 km/h (4 Bft) 97,87 %
04.03.2019 13:50 7,4 C 8,3 C 6,7 C 88 % 991,6 hPa 0,0 l/m 0 min 0 min 209 W/m 22,5 km/h (4 Bft) 97,83 %
04.03.2019 13:52 7,5 C 7,8 C 6,1 C 87 % 991,7 hPa 0,0 l/m 0 min 0 min 109 W/m 22,5 km/h (4 Bft) 95,74 %
04.03.2019 13:54 7,5 C 7,8 C 6,1 C 87 % 991,8 hPa 0,0 l/m 0 min 0 min 89 W/m 22,5 km/h (4 Bft) 97,87 %
04.03.2019 13:56 7,5 C 7,2 C 6,1 C 86 % 991,8 hPa 0,0 l/m 0 min 0 min 85 W/m 29,0 km/h (5 Bft) 97,87 %
04.03.2019 13:58 7,5 C 7,2 C 6,7 C 86 % 991,8 hPa 0,0 l/m 0 min 0 min 104 W/m 25,7 km/h (4 Bft) 97,87 %
04.03.2019 14:00 7,5 C 7,2 C 6,7 C 86 % 991,8 hPa 0,0 l/m 0 min 0 min 90 W/m 22,5 km/h (4 Bft) 95,74 %
04.03.2019 14:02 7,5 C 7,2 C 6,7 C 85 % 991,8 hPa 0,0 l/m 0 min 0 min 83 W/m 25,7 km/h (4 Bft) 97,83 %
04.03.2019 14:04 7,5 C 7,2 C 6,7 C 85 % 991,9 hPa 0,0 l/m 0 min 0 min 101 W/m 29,0 km/h (5 Bft) 95,74 %
04.03.2019 14:06 7,5 C 7,8 C 6,7 C 85 % 991,9 hPa 0,0 l/m 0 min 0 min 136 W/m 19,3 km/h (3 Bft) 96,61 %
04.03.2019 14:08 7,5 C 7,8 C 7,2 C 85 % 991,9 hPa 0,0 l/m 0 min 0 min 164 W/m 19,3 km/h (3 Bft) 100,00 %
04.03.2019 14:10 7,5 C 7,8 C 6,7 C 85 % 992,0 hPa 0,0 l/m 0 min 0 min 112 W/m 22,5 km/h (4 Bft) 100,00 %
04.03.2019 14:12 7,6 C 7,2 C 6,7 C 85 % 992,0 hPa 0,0 l/m 0 min 0 min 95 W/m 29,0 km/h (5 Bft) 97,83 %
04.03.2019 14:14 7,6 C 7,8 C 6,7 C 85 % 992,1 hPa 0,0 l/m 0 min 0 min 106 W/m 22,5 km/h (4 Bft) 100,00 %
04.03.2019 14:16 7,6 C 7,8 C 7,2 C 85 % 992,1 hPa 0,0 l/m 0 min 0 min 207 W/m 16,1 km/h (3 Bft) 100,00 %
04.03.2019 14:18 7,6 C 8,3 C 7,2 C 85 % 992,1 hPa 0,0 l/m 0 min 0 min 233 W/m 19,3 km/h (3 Bft) 100,00 %
04.03.2019 14:20 7,7 C 8,3 C 7,8 C 85 % 992,2 hPa 0,0 l/m 2 min 0 min 258 W/m 19,3 km/h (3 Bft) 100,00 %
04.03.2019 14:22 7,7 C 8,3 C 7,8 C 85 % 992,2 hPa 0,0 l/m 2 min 0 min 243 W/m 22,5 km/h (4 Bft) 97,87 %
04.03.2019 14:24 7,7 C 8,3 C 7,8 C 84 % 992,1 hPa 0,0 l/m 0 min 0 min 232 W/m 25,7 km/h (4 Bft) 100,00 %
04.03.2019 14:26 7,8 C 8,3 C 7,8 C 84 % 992,2 hPa 0,0 l/m 0 min 0 min 232 W/m 25,7 km/h (4 Bft) 100,00 %
04.03.2019 14:28 7,8 C 8,9 C 7,8 C 84 % 992,2 hPa 0,0 l/m 0 min 0 min 218 W/m 9,7 km/h (2 Bft) 100,00 %
04.03.2019 14:30 7,9 C 8,9 C 7,8 C 84 % 992,2 hPa 0,0 l/m 2 min 0 min 243 W/m 16,1 km/h (3 Bft) 100,00 %
04.03.2019 14:32 7,9 C 8,9 C 7,8 C 84 % 992,1 hPa 0,0 l/m 2 min 0 min 274 W/m 22,5 km/h (4 Bft) 97,87 %
04.03.2019 14:34 8,0 C 9,4 C 8,3 C 83 % 992,3 hPa 0,0 l/m 2 min 0 min 244 W/m 16,1 km/h (3 Bft) 100,00 %
04.03.2019 14:36 8,1 C 8,9 C 8,3 C 83 % 992,3 hPa 0,0 l/m 2 min 0 min 250 W/m 12,9 km/h (3 Bft) 100,00 %
04.03.2019 14:38 8,1 C 8,9 C 7,8 C 83 % 992,3 hPa 0,0 l/m 2 min 0 min 234 W/m 22,5 km/h (4 Bft) 100,00 %
04.03.2019 14:40 8,2 C 8,9 C 7,8 C 82 % 992,4 hPa 0,0 l/m 0 min 0 min 220 W/m 19,3 km/h (3 Bft) 100,00 %
04.03.2019 14:42 8,2 C 8,9 C 7,8 C 82 % 992,4 hPa 0,0 l/m 2 min 0 min 234 W/m 25,7 km/h (4 Bft) 100,00 %
04.03.2019 14:44 8,2 C 9,4 C 8,3 C 81 % 992,6 hPa 0,0 l/m 2 min 0 min 239 W/m 16,1 km/h (3 Bft) 100,00 %
04.03.2019 14:46 8,3 C 10,6 C 8,3 C 81 % 992,5 hPa 0,0 l/m 2 min 0 min 239 W/m 16,1 km/h (3 Bft) 100,00 %
04.03.2019 14:48 8,4 C 10,0 C 8,3 C 81 % 992,5 hPa 0,0 l/m 2 min 0 min 239 W/m 22,5 km/h (4 Bft) 100,00 %
04.03.2019 14:50 8,5 C 9,4 C 8,3 C 81 % 992,5 hPa 0,0 l/m 0 min 0 min 218 W/m 32,2 km/h (5 Bft) 100,00 %
04.03.2019 14:52 8,5 C 8,9 C 8,3 C 81 % 992,7 hPa 0,0 l/m 0 min 0 min 153 W/m 22,5 km/h (4 Bft) 97,87 %
04.03.2019 14:54 8,6 C 8,9 C 7,8 C 80 % 992,7 hPa 0,0 l/m 0 min 0 min 142 W/m 32,2 km/h (5 Bft) 100,00 %
04.03.2019 14:56 8,6 C 9,4 C 8,3 C 79 % 992,8 hPa 0,0 l/m 0 min 0 min 146 W/m 29,0 km/h (5 Bft) 97,87 %
04.03.2019 14:58 8,6 C 10,0 C 8,3 C 79 % 992,8 hPa 0,0 l/m 2 min 0 min 238 W/m 32,2 km/h (5 Bft) 100,00 %
04.03.2019 15:00 8,7 C 9,4 C 8,3 C 78 % 992,9 hPa 0,0 l/m 2 min 0 min 251 W/m 25,7 km/h (4 Bft) 95,74 %
04.03.2019 15:02 8,7 C 9,4 C 8,3 C 77 % 993,0 hPa 0,0 l/m 0 min 0 min 184 W/m 19,3 km/h (3 Bft) 100,00 %
04.03.2019 15:04 8,7 C 9,4 C 8,3 C 77 % 993,0 hPa 0,0 l/m 0 min 0 min 193 W/m 25,7 km/h (4 Bft) 100,00 %
04.03.2019 15:06 8,7 C 9,4 C 8,3 C 76 % 993,0 hPa 0,0 l/m 0 min 0 min 198 W/m 29,0 km/h (5 Bft) 94,92 %
04.03.2019 15:08 8,7 C 10,6 C 8,3 C 75 % 993,1 hPa 0,0 l/m 2 min 0 min 383 W/m 35,4 km/h (5 Bft) 97,14 %
04.03.2019 15:10 8,8 C 10,0 C 8,3 C 75 % 993,1 hPa 0,0 l/m 2 min 0 min 354 W/m 25,7 km/h (4 Bft) 97,83 %
04.03.2019 15:12 8,8 C 9,4 C 8,3 C 75 % 993,2 hPa 0,0 l/m 2 min 0 min 215 W/m 22,5 km/h (4 Bft) 91,49 %
04.03.2019 15:14 8,8 C 9,4 C 7,8 C 75 % 993,2 hPa 0,0 l/m 0 min 0 min 144 W/m 25,7 km/h (4 Bft) 95,74 %
04.03.2019 15:16 8,8 C 10,0 C 8,3 C 75 % 993,2 hPa 0,0 l/m 0 min 0 min 178 W/m 16,1 km/h (3 Bft) 91,49 %
04.03.2019 15:18 8,8 C 10,0 C 8,3 C 74 % 993,4 hPa 0,0 l/m 2 min 0 min 375 W/m 25,7 km/h (4 Bft) 93,62 %
04.03.2019 15:20 8,8 C 9,4 C 7,8 C 73 % 993,3 hPa 0,0 l/m 0 min 0 min 151 W/m 29,0 km/h (5 Bft) 95,74 %
04.03.2019 15:22 8,8 C 9,4 C 7,8 C 72 % 993,4 hPa 0,0 l/m 0 min 0 min 136 W/m 35,4 km/h (5 Bft) 93,48 %
04.03.2019 15:24 8,7 C 9,4 C 7,8 C 70 % 993,4 hPa 0,0 l/m 0 min 0 min 169 W/m 29,0 km/h (5 Bft) 95,74 %
04.03.2019 15:26 8,7 C 10,0 C 8,3 C 70 % 993,5 hPa 0,0 l/m 2 min 0 min 306 W/m 32,2 km/h (5 Bft) 93,62 %
04.03.2019 15:28 8,8 C 10,6 C 8,3 C 69 % 993,4 hPa 0,0 l/m 2 min 0 min 358 W/m 32,2 km/h (5 Bft) 91,49 %
04.03.2019 15:30 8,8 C 10,0 C 7,8 C 70 % 993,4 hPa 0,0 l/m 2 min 0 min 296 W/m 32,2 km/h (5 Bft) 93,62 %
04.03.2019 15:32 8,8 C 9,4 C 7,8 C 69 % 993,5 hPa 0,0 l/m 0 min 0 min 129 W/m 29,0 km/h (5 Bft) 93,62 %
04.03.2019 15:34 8,8 C 10,0 C 7,8 C 68 % 993,6 hPa 0,0 l/m 0 min 0 min 125 W/m 32,2 km/h (5 Bft) 95,65 %
04.03.2019 15:36 8,8 C 10,0 C 7,8 C 69 % 993,6 hPa 0,0 l/m 2 min 0 min 229 W/m 32,2 km/h (5 Bft) 95,74 %
04.03.2019 15:38 8,9 C 10,0 C 7,8 C 69 % 993,8 hPa 0,0 l/m 2 min 0 min 183 W/m 19,3 km/h (3 Bft) 95,74 %
04.03.2019 15:40 8,9 C 9,4 C 7,8 C 70 % 993,8 hPa 0,0 l/m 0 min 0 min 127 W/m 22,5 km/h (4 Bft) 95,74 %
04.03.2019 15:42 8,9 C 10,6 C 8,3 C 70 % 993,9 hPa 0,0 l/m 2 min 0 min 182 W/m 25,7 km/h (4 Bft) 93,62 %
04.03.2019 15:44 8,9 C 11,7 C 8,3 C 70 % 993,9 hPa 0,0 l/m 2 min 0 min 384 W/m 16,1 km/h (3 Bft) 91,49 %
04.03.2019 15:46 9,0 C 11,7 C 8,3 C 70 % 993,9 hPa 0,0 l/m 2 min 0 min 304 W/m 19,3 km/h (3 Bft) 93,48 %
04.03.2019 15:48 9,1 C 11,1 C 8,9 C 69 % 993,9 hPa 0,0 l/m 2 min 0 min 250 W/m 19,3 km/h (3 Bft) 95,74 %
04.03.2019 15:50 9,1 C 10,6 C 8,3 C 69 % 994,0 hPa 0,0 l/m 0 min 0 min 157 W/m 32,2 km/h (5 Bft) 95,74 %
04.03.2019 15:52 9,1 C 9,4 C 8,3 C 68 % 994,0 hPa 0,0 l/m 0 min 0 min 146 W/m 29,0 km/h (5 Bft) 93,62 %
04.03.2019 15:54 9,2 C 9,4 C 8,3 C 68 % 994,1 hPa 0,0 l/m 0 min 0 min 108 W/m 16,1 km/h (3 Bft) 95,74 %
04.03.2019 15:56 9,1 C 9,4 C 7,8 C 68 % 994,1 hPa 0,0 l/m 0 min 0 min 117 W/m 32,2 km/h (5 Bft) 97,87 %
04.03.2019 15:58 9,1 C 10,0 C 8,3 C 68 % 994,1 hPa 0,0 l/m 2 min 0 min 248 W/m 22,5 km/h (4 Bft) 95,65 %
04.03.2019 16:00 9,2 C 11,1 C 8,9 C 69 % 994,2 hPa 0,0 l/m 2 min 0 min 339 W/m 19,3 km/h (3 Bft) 100,00 %
04.03.2019 16:02 9,2 C 11,1 C 9,4 C 69 % 994,2 hPa 0,0 l/m 2 min 0 min 312 W/m 29,0 km/h (5 Bft) 95,74 %
04.03.2019 16:04 9,2 C 11,1 C 10,0 C 68 % 994,3 hPa 0,0 l/m 2 min 0 min 284 W/m 22,5 km/h (4 Bft) 95,74 %
04.03.2019 16:06 9,3 C 10,6 C 10,0 C 68 % 994,4 hPa 0,0 l/m 2 min 0 min 237 W/m 22,5 km/h (4 Bft) 98,28 %
04.03.2019 16:08 9,3 C 10,6 C 10,0 C 68 % 994,5 hPa 0,0 l/m 2 min 0 min 248 W/m 38,6 km/h (5 Bft) 94,29 %
04.03.2019 16:10 9,3 C 10,6 C 9,4 C 68 % 994,4 hPa 0,0 l/m 2 min 0 min 192 W/m 22,5 km/h (4 Bft) 100,00 %
04.03.2019 16:12 9,4 C 10,0 C 8,9 C 67 % 994,4 hPa 0,0 l/m 0 min 0 min 146 W/m 19,3 km/h (3 Bft) 100,00 %
04.03.2019 16:14 9,3 C 10,0 C 8,9 C 66 % 994,4 hPa 0,0 l/m 2 min 0 min 160 W/m 19,3 km/h (3 Bft) 97,87 %
04.03.2019 16:16 9,3 C 10,0 C 8,9 C 66 % 994,4 hPa 0,0 l/m 2 min 0 min 213 W/m 25,7 km/h (4 Bft) 97,87 %
04.03.2019 16:18 9,3 C 10,6 C 9,4 C 66 % 994,5 hPa 0,0 l/m 2 min 0 min 254 W/m 35,4 km/h (5 Bft) 97,87 %
04.03.2019 16:20 9,3 C 10,6 C 9,4 C 65 % 994,4 hPa 0,0 l/m 2 min 0 min 235 W/m 35,4 km/h (5 Bft) 97,83 %
04.03.2019 16:22 9,3 C 10,6 C 9,4 C 65 % 994,6 hPa 0,0 l/m 2 min 0 min 236 W/m 16,1 km/h (3 Bft) 97,87 %
04.03.2019 16:24 9,3 C 10,0 C 8,9 C 65 % 994,6 hPa 0,0 l/m 2 min 0 min 169 W/m 29,0 km/h (5 Bft) 100,00 %
04.03.2019 16:26 9,3 C 9,4 C 8,9 C 65 % 994,7 hPa 0,0 l/m 2 min 0 min 173 W/m 25,7 km/h (4 Bft) 97,87 %
04.03.2019 16:28 9,3 C 10,0 C 8,3 C 65 % 994,8 hPa 0,0 l/m 2 min 0 min 193 W/m 32,2 km/h (5 Bft) 97,87 %
04.03.2019 16:30 9,3 C 10,0 C 8,3 C 65 % 994,8 hPa 0,0 l/m 2 min 0 min 188 W/m 22,5 km/h (4 Bft) 97,87 %
04.03.2019 16:32 9,3 C 9,4 C 8,3 C 65 % 994,9 hPa 0,0 l/m 2 min 0 min 176 W/m 25,7 km/h (4 Bft) 100,00 %
04.03.2019 16:34 9,3 C 10,0 C 8,3 C 66 % 995,0 hPa 0,0 l/m 2 min 0 min 174 W/m 22,5 km/h (4 Bft) 97,87 %
04.03.2019 16:36 9,3 C 9,4 C 8,3 C 66 % 995,0 hPa 0,0 l/m 2 min 0 min 190 W/m 35,4 km/h (5 Bft) 100,00 %
04.03.2019 16:38 9,3 C 9,4 C 8,3 C 66 % 995,0 hPa 0,0 l/m 2 min 0 min 181 W/m 16,1 km/h (3 Bft) 100,00 %
04.03.2019 16:40 9,3 C 10,0 C 8,3 C 66 % 995,1 hPa 0,0 l/m 2 min 0 min 183 W/m 16,1 km/h (3 Bft) 97,87 %
04.03.2019 16:42 9,3 C 9,4 C 8,3 C 66 % 995,0 hPa 0,0 l/m 2 min 0 min 179 W/m 19,3 km/h (3 Bft) 97,87 %
04.03.2019 16:44 9,2 C 9,4 C 8,3 C 65 % 995,1 hPa 0,0 l/m 2 min 0 min 132 W/m 41,8 km/h (6 Bft) 95,65 %
04.03.2019 16:46 9,2 C 8,9 C 7,8 C 66 % 995,2 hPa 0,0 l/m 0 min 0 min 106 W/m 25,7 km/h (4 Bft) 97,87 %
04.03.2019 16:48 9,2 C 8,9 C 7,8 C 65 % 995,2 hPa 0,0 l/m 0 min 0 min 99 W/m 29,0 km/h (5 Bft) 97,87 %
04.03.2019 16:50 9,1 C 8,9 C 7,8 C 65 % 995,3 hPa 0,0 l/m 2 min 0 min 121 W/m 22,5 km/h (4 Bft) 97,87 %
04.03.2019 16:52 9,1 C 8,9 C 7,8 C 65 % 995,3 hPa 0,0 l/m 2 min 0 min 130 W/m 41,8 km/h (6 Bft) 97,87 %
04.03.2019 16:54 9,1 C 8,9 C 7,8 C 65 % 995,4 hPa 0,0 l/m 2 min 0 min 132 W/m 16,1 km/h (3 Bft) 97,87 %
04.03.2019 16:56 9,1 C 8,9 C 7,8 C 66 % 995,6 hPa 0,0 l/m 2 min 0 min 131 W/m 22,5 km/h (4 Bft) 97,83 %
04.03.2019 16:58 9,0 C 8,9 C 7,8 C 65 % 995,5 hPa 0,0 l/m 2 min 0 min 114 W/m 29,0 km/h (5 Bft) 97,87 %
04.03.2019 17:00 8,9 C 8,9 C 7,8 C 65 % 995,5 hPa 0,0 l/m 2 min 0 min 108 W/m 32,2 km/h (5 Bft) 97,87 %
04.03.2019 17:02 8,9 C 8,9 C 7,8 C 65 % 995,6 hPa 0,0 l/m 2 min 0 min 103 W/m 41,8 km/h (6 Bft) 97,87 %
04.03.2019 17:04 8,9 C 8,9 C 7,8 C 64 % 995,6 hPa 0,0 l/m 2 min 0 min 98 W/m 29,0 km/h (5 Bft) 97,87 %
04.03.2019 17:06 8,9 C 8,9 C 7,8 C 64 % 995,7 hPa 0,0 l/m 2 min 0 min 103 W/m 19,3 km/h (3 Bft) 96,55 %
04.03.2019 17:08 8,8 C 8,9 C 7,8 C 65 % 995,7 hPa 0,0 l/m 2 min 0 min 91 W/m 16,1 km/h (3 Bft) 97,14 %
04.03.2019 17:10 8,8 C 8,3 C 7,8 C 65 % 995,8 hPa 0,0 l/m 0 min 0 min 77 W/m 51,5 km/h (7 Bft) 97,87 %
04.03.2019 17:12 8,8 C 8,3 C 7,2 C 64 % 995,7 hPa 0,0 l/m 0 min 0 min 74 W/m 29,0 km/h (5 Bft) 95,74 %
04.03.2019 17:14 8,7 C 8,3 C 7,2 C 64 % 995,6 hPa 0,0 l/m 0 min 0 min 72 W/m 22,5 km/h (4 Bft) 97,87 %
04.03.2019 17:16 8,7 C 8,3 C 7,2 C 65 % 995,7 hPa 0,0 l/m 0 min 0 min 70 W/m 16,1 km/h (3 Bft) 95,74 %
04.03.2019 17:18 8,7 C 8,3 C 7,2 C 65 % 995,7 hPa 0,0 l/m 0 min 0 min 68 W/m 22,5 km/h (4 Bft) 97,87 %
04.03.2019 17:20 8,7 C 8,3 C 7,2 C 64 % 995,7 hPa 0,0 l/m 0 min 0 min 64 W/m 22,5 km/h (4 Bft) 97,83 %
04.03.2019 17:22 8,6 C 8,3 C 7,2 C 65 % 995,7 hPa 0,0 l/m 0 min 0 min 61 W/m 22,5 km/h (4 Bft) 97,87 %
04.03.2019 17:24 8,6 C 7,8 C 7,2 C 65 % 995,8 hPa 0,0 l/m 0 min 0 min 58 W/m 22,5 km/h (4 Bft) 97,87 %
04.03.2019 17:26 8,6 C 7,8 C 7,2 C 65 % 995,8 hPa 0,0 l/m 0 min 0 min 56 W/m 25,7 km/h (4 Bft) 95,74 %
04.03.2019 17:28 8,5 C 7,8 C 7,2 C 65 % 995,9 hPa 0,0 l/m 0 min 0 min 56 W/m 22,5 km/h (4 Bft) 97,87 %
04.03.2019 17:30 8,5 C 7,8 C 7,2 C 65 % 995,9 hPa 0,0 l/m 0 min 0 min 54 W/m 19,3 km/h (3 Bft) 97,83 %
04.03.2019 17:32 8,5 C 7,8 C 7,2 C 65 % 996,0 hPa 0,0 l/m 0 min 0 min 51 W/m 16,1 km/h (3 Bft) 100,00 %
04.03.2019 17:34 8,4 C 7,8 C 7,2 C 66 % 995,9 hPa 0,0 l/m 0 min 0 min 45 W/m 19,3 km/h (3 Bft) 97,87 %
04.03.2019 17:36 8,4 C 7,8 C 7,2 C 65 % 995,9 hPa 0,0 l/m 0 min 0 min 41 W/m 22,5 km/h (4 Bft) 100,00 %
04.03.2019 17:38 8,4 C 7,8 C 7,2 C 66 % 995,9 hPa 0,0 l/m 0 min 0 min 37 W/m 19,3 km/h (3 Bft) 100,00 %
04.03.2019 17:40 8,4 C 7,8 C 7,2 C 66 % 996,0 hPa 0,0 l/m 0 min 0 min 34 W/m 9,7 km/h (2 Bft) 100,00 %
04.03.2019 17:42 8,4 C 7,8 C 7,2 C 66 % 996,1 hPa 0,0 l/m 0 min 0 min 32 W/m 19,3 km/h (3 Bft) 100,00 %
04.03.2019 17:44 8,3 C 7,8 C 6,7 C 66 % 996,1 hPa 0,0 l/m 0 min 0 min 31 W/m 12,9 km/h (3 Bft) 100,00 %
04.03.2019 17:46 8,3 C 7,8 C 6,7 C 67 % 996,1 hPa 0,0 l/m 0 min 0 min 29 W/m 16,1 km/h (3 Bft) 97,87 %
04.03.2019 17:48 8,3 C 7,2 C 6,7 C 67 % 996,2 hPa 0,0 l/m 0 min 0 min 27 W/m 9,7 km/h (2 Bft) 100,00 %
04.03.2019 17:50 8,3 C 7,2 C 6,7 C 67 % 996,2 hPa 0,0 l/m 0 min 0 min 25 W/m 19,3 km/h (3 Bft) 97,87 %
04.03.2019 17:52 8,2 C 7,2 C 6,7 C 67 % 996,2 hPa 0,0 l/m 0 min 0 min 22 W/m 19,3 km/h (3 Bft) 100,00 %
04.03.2019 17:54 8,2 C 7,2 C 6,7 C 67 % 996,2 hPa 0,0 l/m 0 min 0 min 20 W/m 22,5 km/h (4 Bft) 100,00 %
04.03.2019 17:56 8,2 C 7,2 C 6,7 C 67 % 996,2 hPa 0,0 l/m 0 min 0 min 18 W/m 22,5 km/h (4 Bft) 100,00 %
04.03.2019 17:58 8,2 C 7,2 C 6,7 C 68 % 996,3 hPa 0,0 l/m 0 min 0 min 17 W/m 6,4 km/h (2 Bft) 97,87 %
04.03.2019 18:00 8,1 C 7,2 C 6,7 C 68 % 996,3 hPa 0,0 l/m 0 min 0 min 15 W/m 12,9 km/h (3 Bft) 97,87 %
04.03.2019 18:02 8,1 C 7,2 C 6,7 C 68 % 996,3 hPa 0,0 l/m 0 min 0 min 13 W/m 16,1 km/h (3 Bft) 95,74 %
04.03.2019 18:04 8,1 C 7,2 C 6,7 C 68 % 996,4 hPa 0,0 l/m 0 min 0 min 12 W/m 22,5 km/h (4 Bft) 95,74 %
04.03.2019 18:07 8,1 C 7,2 C 6,7 C 68 % 996,4 hPa 0,0 l/m 0 min 0 min 11 W/m 9,7 km/h (2 Bft) 97,14 %
04.03.2019 18:08 8,1 C 7,2 C 6,7 C 68 % 996,4 hPa 0,0 l/m 0 min 0 min 9 W/m 9,7 km/h (2 Bft) 95,65 %
04.03.2019 18:10 8,0 C 7,2 C 6,7 C 69 % 996,5 hPa 0,0 l/m 0 min 0 min 7 W/m 9,7 km/h (2 Bft) 95,74 %
04.03.2019 18:12 8,0 C 7,2 C 6,7 C 69 % 996,5 hPa 0,0 l/m 0 min 0 min 6 W/m 12,9 km/h (3 Bft) 95,74 %
04.03.2019 18:14 7,9 C 7,2 C 6,1 C 69 % 996,5 hPa 0,0 l/m 0 min 0 min 5 W/m 6,4 km/h (2 Bft) 95,74 %
04.03.2019 18:16 7,9 C 6,7 C 6,1 C 69 % 996,5 hPa 0,0 l/m 0 min 0 min 3 W/m 6,4 km/h (2 Bft) 95,74 %
04.03.2019 18:18 7,9 C 6,7 C 6,1 C 69 % 996,6 hPa 0,0 l/m 0 min 0 min 0 W/m 16,1 km/h (3 Bft) 95,65 %
04.03.2019 18:20 7,8 C 6,7 C 6,1 C 70 % 996,7 hPa 0,0 l/m 0 min 0 min 0 W/m 19,3 km/h (3 Bft) 91,49 %
04.03.2019 18:22 7,8 C 6,7 C 6,1 C 70 % 996,7 hPa 0,0 l/m 0 min 0 min 0 W/m 9,7 km/h (2 Bft) 95,74 %
04.03.2019 18:24 7,8 C 6,7 C 6,1 C 70 % 996,7 hPa 0,0 l/m 0 min 0 min 0 W/m 12,9 km/h (3 Bft) 89,36 %
04.03.2019 18:26 7,7 C 6,7 C 6,1 C 70 % 996,8 hPa 0,0 l/m 0 min 0 min 0 W/m 16,1 km/h (3 Bft) 95,74 %
04.03.2019 18:28 7,7 C 6,7 C 6,1 C 70 % 996,8 hPa 0,0 l/m 0 min 0 min 0 W/m 12,9 km/h (3 Bft) 95,74 %
04.03.2019 18:30 7,7 C 6,7 C 6,1 C 70 % 996,8 hPa 0,0 l/m 0 min 0 min 0 W/m 19,3 km/h (3 Bft) 95,65 %
04.03.2019 18:32 7,7 C 7,2 C 6,7 C 70 % 996,9 hPa 0,0 l/m 0 min 0 min 0 W/m 29,0 km/h (5 Bft) 95,74 %
04.03.2019 18:34 7,7 C 7,2 C 6,7 C 70 % 996,9 hPa 0,0 l/m 0 min 0 min 0 W/m 16,1 km/h (3 Bft) 95,74 %
04.03.2019 18:36 7,7 C 7,2 C 6,7 C 70 % 996,9 hPa 0,0 l/m 0 min 0 min 0 W/m 16,1 km/h (3 Bft) 94,23 %
04.03.2019 18:38 7,7 C 7,2 C 6,7 C 70 % 996,9 hPa 0,0 l/m 0 min 0 min 0 W/m 12,9 km/h (3 Bft) 95,24 %
04.03.2019 18:40 7,7 C 7,2 C 6,1 C 70 % 997,0 hPa 0,0 l/m 0 min 0 min 0 W/m 12,9 km/h (3 Bft) 95,65 %
04.03.2019 18:42 7,6 C 6,7 C 6,1 C 70 % 997,0 hPa 0,0 l/m 0 min 0 min 0 W/m 12,9 km/h (3 Bft) 95,74 %
04.03.2019 18:44 7,6 C 6,7 C 6,1 C 70 % 997,1 hPa 0,0 l/m 0 min 0 min 0 W/m 9,7 km/h (2 Bft) 95,74 %
04.03.2019 18:46 7,6 C 6,7 C 6,1 C 70 % 997,1 hPa 0,0 l/m 0 min 0 min 0 W/m 9,7 km/h (2 Bft) 95,74 %
04.03.2019 18:48 7,6 C 6,7 C 6,1 C 70 % 997,1 hPa 0,0 l/m 0 min 0 min 0 W/m 12,9 km/h (3 Bft) 95,74 %
04.03.2019 18:50 7,6 C 6,7 C 6,1 C 70 % 997,2 hPa 0,0 l/m 0 min 0 min 0 W/m 16,1 km/h (3 Bft) 95,74 %
04.03.2019 18:52 7,6 C 6,7 C 6,1 C 70 % 997,2 hPa 0,0 l/m 0 min 0 min 0 W/m 9,7 km/h (2 Bft) 95,65 %
04.03.2019 18:54 7,6 C 6,7 C 6,1 C 70 % 997,2 hPa 0,0 l/m 0 min 0 min 0 W/m 16,1 km/h (3 Bft) 95,74 %
04.03.2019 18:56 7,6 C 6,7 C 6,1 C 70 % 997,2 hPa 0,0 l/m 0 min 0 min 0 W/m 12,9 km/h (3 Bft) 95,74 %
04.03.2019 18:58 7,5 C 6,7 C 6,1 C 70 % 997,3 hPa 0,0 l/m 0 min 0 min 0 W/m 6,4 km/h (2 Bft) 97,87 %
04.03.2019 19:00 7,5 C 6,7 C 6,1 C 70 % 997,2 hPa 0,0 l/m 0 min 0 min 0 W/m 9,7 km/h (2 Bft) 93,62 %
04.03.2019 19:02 7,5 C 6,7 C 6,1 C 70 % 997,3 hPa 0,0 l/m 0 min 0 min 0 W/m 9,7 km/h (2 Bft) 97,87 %
04.03.2019 19:04 7,5 C 6,7 C 6,1 C 71 % 997,3 hPa 0,0 l/m 0 min 0 min 0 W/m 6,4 km/h (2 Bft) 97,83 %
04.03.2019 19:06 7,5 C 6,7 C 6,1 C 71 % 997,5 hPa 0,0 l/m 0 min 0 min 0 W/m 9,7 km/h (2 Bft) 93,62 %
04.03.2019 19:08 7,4 C 6,7 C 6,1 C 71 % 997,5 hPa 0,0 l/m 0 min 0 min 0 W/m 9,7 km/h (2 Bft) 96,30 %
04.03.2019 19:10 7,4 C 6,7 C 6,1 C 71 % 997,5 hPa 0,0 l/m 0 min 0 min 0 W/m 19,3 km/h (3 Bft) 95,65 %
04.03.2019 19:12 7,4 C 6,7 C 6,1 C 71 % 997,5 hPa 0,0 l/m 0 min 0 min 0 W/m 9,7 km/h (2 Bft) 97,87 %
04.03.2019 19:14 7,4 C 6,7 C 6,1 C 71 % 997,5 hPa 0,0 l/m 0 min 0 min 0 W/m 3,2 km/h (1 Bft) 100,00 %
04.03.2019 19:16 7,4 C 6,7 C 5,6 C 71 % 997,4 hPa 0,0 l/m 0 min 0 min 0 W/m 3,2 km/h (1 Bft) 97,87 %
04.03.2019 19:18 7,4 C 6,7 C 5,6 C 71 % 997,5 hPa 0,0 l/m 0 min 0 min 0 W/m 9,7 km/h (2 Bft) 97,87 %
04.03.2019 19:20 7,3 C 6,7 C 5,6 C 71 % 997,4 hPa 0,0 l/m 0 min 0 min 0 W/m 9,7 km/h (2 Bft) 97,87 %
04.03.2019 19:22 7,3 C 6,7 C 6,1 C 71 % 997,5 hPa 0,0 l/m 0 min 0 min 0 W/m 9,7 km/h (2 Bft) 95,65 %
04.03.2019 19:24 7,3 C 6,7 C 6,1 C 72 % 997,5 hPa 0,0 l/m 0 min 0 min 0 W/m 12,9 km/h (3 Bft) 97,87 %
04.03.2019 19:26 7,3 C 6,7 C 6,1 C 72 % 997,5 hPa 0,0 l/m 0 min 0 min 0 W/m 9,7 km/h (2 Bft) 95,74 %
04.03.2019 19:28 7,3 C 6,7 C 5,6 C 72 % 997,5 hPa 0,0 l/m 0 min 0 min 0 W/m 9,7 km/h (2 Bft) 97,87 %
04.03.2019 19:30 7,3 C 6,7 C 5,6 C 72 % 997,6 hPa 0,0 l/m 0 min 0 min 0 W/m 9,7 km/h (2 Bft) 97,87 %
04.03.2019 19:32 7,3 C 6,7 C 6,1 C 72 % 997,5 hPa 0,0 l/m 0 min 0 min 0 W/m 6,4 km/h (2 Bft) 95,74 %
04.03.2019 19:34 7,3 C 6,7 C 6,1 C 72 % 997,6 hPa 0,0 l/m 0 min 0 min 0 W/m 9,7 km/h (2 Bft) 95,65 %
04.03.2019 19:36 7,3 C 6,7 C 6,1 C 72 % 997,6 hPa 0,0 l/m 0 min 0 min 0 W/m 16,1 km/h (3 Bft) 97,87 %
04.03.2019 19:38 7,3 C 6,7 C 6,1 C 73 % 997,6 hPa 0,0 l/m 0 min 0 min 0 W/m 12,9 km/h (3 Bft) 97,87 %
04.03.2019 19:40 7,2 C 6,7 C 5,6 C 73 % 997,6 hPa 0,0 l/m 0 min 0 min 0 W/m 12,9 km/h (3 Bft) 97,87 %
04.03.2019 19:42 7,2 C 6,7 C 6,1 C 73 % 997,6 hPa 0,0 l/m 0 min 0 min 0 W/m 12,9 km/h (3 Bft) 97,87 %
04.03.2019 19:44 7,2 C 6,7 C 6,1 C 73 % 997,6 hPa 0,0 l/m 0 min 0 min 0 W/m 16,1 km/h (3 Bft) 97,83 %
04.03.2019 19:46 7,2 C 6,7 C 6,1 C 73 % 997,6 hPa 0,0 l/m 0 min 0 min 0 W/m 9,7 km/h (2 Bft) 97,87 %
04.03.2019 19:48 7,2 C 6,7 C 6,1 C 73 % 997,6 hPa 0,0 l/m 0 min 0 min 0 W/m 16,1 km/h (3 Bft) 97,87 %
04.03.2019 19:50 7,2 C 6,7 C 6,1 C 73 % 997,6 hPa 0,0 l/m 0 min 0 min 0 W/m 16,1 km/h (3 Bft) 97,87 %
04.03.2019 19:52 7,2 C 6,7 C 6,1 C 73 % 997,6 hPa 0,0 l/m 0 min 0 min 0 W/m 6,4 km/h (2 Bft) 95,74 %
04.03.2019 19:54 7,2 C 6,7 C 6,1 C 73 % 997,7 hPa 0,0 l/m 0 min 0 min 0 W/m 16,1 km/h (3 Bft) 95,74 %
04.03.2019 19:56 7,2 C 6,7 C 6,1 C 74 % 997,6 hPa 0,0 l/m 0 min 0 min 0 W/m 9,7 km/h (2 Bft) 100,00 %
04.03.2019 19:58 7,2 C 6,7 C 6,1 C 74 % 997,6 hPa 0,0 l/m 0 min 0 min 0 W/m 12,9 km/h (3 Bft) 100,00 %
04.03.2019 20:00 7,2 C 6,7 C 6,1 C 74 % 997,6 hPa 0,0 l/m 0 min 0 min 0 W/m 25,7 km/h (4 Bft) 100,00 %
04.03.2019 20:02 7,2 C 6,7 C 6,1 C 74 % 997,7 hPa 0,0 l/m 0 min 0 min 0 W/m 29,0 km/h (5 Bft) 100,00 %
04.03.2019 20:04 7,2 C 6,7 C 6,1 C 74 % 997,6 hPa 0,0 l/m 0 min 0 min 0 W/m 22,5 km/h (4 Bft) 100,00 %
04.03.2019 20:06 7,2 C 6,7 C 6,1 C 74 % 997,6 hPa 0,0 l/m 0 min 0 min 0 W/m 6,4 km/h (2 Bft) 100,00 %
04.03.2019 20:08 7,2 C 6,7 C 6,1 C 74 % 997,6 hPa 0,0 l/m 0 min 0 min 0 W/m 6,4 km/h (2 Bft) 100,00 %
04.03.2019 20:10 7,2 C 6,7 C 5,6 C 74 % 997,7 hPa 0,0 l/m 0 min 0 min 0 W/m 6,4 km/h (2 Bft) 100,00 %
04.03.2019 20:12 7,2 C 6,7 C 5,6 C 74 % 997,7 hPa 0,0 l/m 0 min 0 min 0 W/m 9,7 km/h (2 Bft) 100,00 %
04.03.2019 20:14 7,2 C 6,7 C 5,6 C 74 % 997,7 hPa 0,0 l/m 0 min 0 min 0 W/m 9,7 km/h (2 Bft) 100,00 %
04.03.2019 20:16 7,2 C 6,7 C 5,6 C 74 % 997,7 hPa 0,0 l/m 0 min 0 min 0 W/m 12,9 km/h (3 Bft) 100,00 %
04.03.2019 20:18 7,2 C 6,7 C 5,6 C 74 % 997,7 hPa 0,0 l/m 0 min 0 min 0 W/m 19,3 km/h (3 Bft) 97,87 %
04.03.2019 20:20 7,2 C 6,7 C 6,1 C 74 % 997,7 hPa 0,0 l/m 0 min 0 min 0 W/m 19,3 km/h (3 Bft) 100,00 %
04.03.2019 20:22 7,2 C 6,7 C 6,1 C 74 % 997,8 hPa 0,0 l/m 0 min 0 min 0 W/m 16,1 km/h (3 Bft) 97,87 %
04.03.2019 20:24 7,2 C 6,7 C 5,6 C 75 % 997,7 hPa 0,0 l/m 0 min 0 min 0 W/m 16,1 km/h (3 Bft) 100,00 %
04.03.2019 20:26 7,2 C 6,7 C 6,1 C 75 % 997,8 hPa 0,0 l/m 0 min 0 min 0 W/m 16,1 km/h (3 Bft) 100,00 %
04.03.2019 20:28 7,2 C 6,7 C 5,6 C 75 % 997,8 hPa 0,0 l/m 0 min 0 min 0 W/m 12,9 km/h (3 Bft) 100,00 %
04.03.2019 20:30 7,2 C 6,7 C 5,6 C 75 % 997,8 hPa 0,0 l/m 0 min 0 min 0 W/m 19,3 km/h (3 Bft) 100,00 %
04.03.2019 20:32 7,2 C 6,7 C 5,6 C 75 % 997,7 hPa 0,0 l/m 0 min 0 min 0 W/m 9,7 km/h (2 Bft) 97,87 %
04.03.2019 20:34 7,2 C 6,7 C 5,6 C 75 % 997,8 hPa 0,0 l/m 0 min 0 min 0 W/m 16,1 km/h (3 Bft) 100,00 %
04.03.2019 20:36 7,2 C 6,7 C 5,6 C 75 % 997,8 hPa 0,0 l/m 0 min 0 min 0 W/m 22,5 km/h (4 Bft) 100,00 %
04.03.2019 20:38 7,2 C 6,7 C 5,6 C 75 % 997,9 hPa 0,0 l/m 0 min 0 min 0 W/m 22,5 km/h (4 Bft) 97,87 %
04.03.2019 20:40 7,2 C 6,7 C 5,6 C 75 % 997,8 hPa 0,0 l/m 0 min 0 min 0 W/m 16,1 km/h (3 Bft) 100,00 %
04.03.2019 20:42 7,2 C 6,7 C 5,6 C 75 % 997,7 hPa 0,0 l/m 0 min 0 min 0 W/m 12,9 km/h (3 Bft) 100,00 %
04.03.2019 20:44 7,2 C 6,1 C 5,6 C 75 % 997,7 hPa 0,0 l/m 0 min 0 min 0 W/m 12,9 km/h (3 Bft) 97,87 %
04.03.2019 20:46 7,1 C 6,1 C 5,6 C 75 % 997,8 hPa 0,0 l/m 0 min 0 min 0 W/m 19,3 km/h (3 Bft) 97,87 %
04.03.2019 20:48 7,1 C 6,1 C 5,6 C 75 % 997,8 hPa 0,0 l/m 0 min 0 min 0 W/m 19,3 km/h (3 Bft) 100,00 %
04.03.2019 20:50 7,1 C 6,7 C 5,6 C 75 % 997,8 hPa 0,0 l/m 0 min 0 min 0 W/m 12,9 km/h (3 Bft) 100,00 %
04.03.2019 20:52 7,1 C 6,1 C 5,6 C 76 % 997,8 hPa 0,0 l/m 0 min 0 min 0 W/m 12,9 km/h (3 Bft) 100,00 %
04.03.2019 20:54 7,1 C 6,1 C 5,6 C 76 % 997,7 hPa 0,0 l/m 0 min 0 min 0 W/m 22,5 km/h (4 Bft) 100,00 %
04.03.2019 20:56 7,1 C 6,1 C 5,6 C 76 % 997,8 hPa 0,0 l/m 0 min 0 min 0 W/m 19,3 km/h (3 Bft) 100,00 %
04.03.2019 20:58 7,1 C 6,1 C 5,6 C 76 % 997,8 hPa 0,0 l/m 0 min 0 min 0 W/m 12,9 km/h (3 Bft) 100,00 %
04.03.2019 21:00 7,1 C 6,1 C 5,6 C 76 % 997,8 hPa 0,0 l/m 0 min 0 min 0 W/m 22,5 km/h (4 Bft) 97,87 %
04.03.2019 21:02 7,1 C 6,1 C 5,6 C 76 % 997,9 hPa 0,0 l/m 0 min 0 min 0 W/m 19,3 km/h (3 Bft) 97,87 %
04.03.2019 21:04 7,1 C 6,7 C 5,6 C 76 % 997,8 hPa 0,0 l/m 0 min 0 min 0 W/m 16,1 km/h (3 Bft) 97,87 %
04.03.2019 21:06 7,1 C 6,7 C 5,6 C 76 % 997,8 hPa 0,0 l/m 0 min 0 min 0 W/m 12,9 km/h (3 Bft) 97,83 %
04.03.2019 21:08 7,0 C 6,7 C 6,1 C 77 % 997,8 hPa 0,0 l/m 0 min 0 min 0 W/m 22,5 km/h (4 Bft) 95,74 %
04.03.2019 21:10 7,1 C 6,7 C 6,1 C 77 % 997,9 hPa 0,0 l/m 0 min 0 min 0 W/m 16,1 km/h (3 Bft) 95,74 %
04.03.2019 21:12 7,1 C 6,7 C 6,1 C 77 % 997,9 hPa 0,0 l/m 0 min 0 min 0 W/m 25,7 km/h (4 Bft) 97,87 %
04.03.2019 21:14 7,1 C 6,7 C 6,1 C 77 % 997,8 hPa 0,0 l/m 0 min 0 min 0 W/m 16,1 km/h (3 Bft) 97,87 %
04.03.2019 21:16 7,1 C 6,7 C 6,1 C 77 % 997,8 hPa 0,0 l/m 0 min 0 min 0 W/m 25,7 km/h (4 Bft) 95,74 %
04.03.2019 21:18 7,1 C 6,7 C 6,1 C 77 % 997,9 hPa 0,0 l/m 0 min 0 min 0 W/m 25,7 km/h (4 Bft) 95,65 %
04.03.2019 21:20 7,1 C 6,7 C 6,1 C 77 % 997,9 hPa 0,0 l/m 0 min 0 min 0 W/m 22,5 km/h (4 Bft) 97,87 %
04.03.2019 21:22 7,1 C 6,7 C 6,1 C 77 % 997,9 hPa 0,0 l/m 0 min 0 min 0 W/m 16,1 km/h (3 Bft) 97,87 %
04.03.2019 21:24 7,2 C 6,7 C 6,1 C 77 % 998,0 hPa 0,0 l/m 0 min 0 min 0 W/m 22,5 km/h (4 Bft) 95,74 %
04.03.2019 21:26 7,2 C 6,7 C 6,1 C 77 % 998,0 hPa 0,0 l/m 0 min 0 min 0 W/m 19,3 km/h (3 Bft) 91,49 %
04.03.2019 21:28 7,2 C 6,7 C 6,1 C 77 % 998,0 hPa 0,0 l/m 0 min 0 min 0 W/m 32,2 km/h (5 Bft) 97,83 %
04.03.2019 21:30 7,2 C 6,7 C 6,1 C 77 % 998,0 hPa 0,0 l/m 0 min 2 min 0 W/m 16,1 km/h (3 Bft) 97,87 %
04.03.2019 21:32 7,3 C 6,7 C 5,6 C 78 % 998,0 hPa 0,0 l/m 0 min 2 min 0 W/m 22,5 km/h (4 Bft) 93,62 %
04.03.2019 21:34 7,3 C 6,7 C 6,1 C 78 % 998,0 hPa 0,0 l/m 0 min 0 min 0 W/m 29,0 km/h (5 Bft) 95,74 %
04.03.2019 21:36 7,3 C 6,7 C 6,1 C 78 % 998,0 hPa 0,0 l/m 0 min 0 min 0 W/m 22,5 km/h (4 Bft) 93,62 %
04.03.2019 21:38 7,3 C 6,7 C 6,1 C 78 % 998,0 hPa 0,0 l/m 0 min 2 min 0 W/m 19,3 km/h (3 Bft) 97,87 %
04.03.2019 21:40 7,3 C 6,7 C 5,6 C 79 % 998,0 hPa 0,0 l/m 0 min 2 min 0 W/m 9,7 km/h (2 Bft) 95,65 %
04.03.2019 21:42 7,3 C 6,7 C 5,6 C 79 % 998,0 hPa 0,0 l/m 0 min 0 min 0 W/m 22,5 km/h (4 Bft) 91,49 %
04.03.2019 21:44 7,3 C 6,7 C 6,1 C 79 % 998,1 hPa 0,0 l/m 0 min 0 min 0 W/m 25,7 km/h (4 Bft) 93,62 %
04.03.2019 21:46 7,4 C 6,7 C 6,1 C 79 % 998,2 hPa 0,0 l/m 0 min 2 min 0 W/m 12,9 km/h (3 Bft) 95,74 %
04.03.2019 21:48 7,3 C 6,1 C 5,6 C 79 % 998,3 hPa 0,0 l/m 0 min 2 min 0 W/m 22,5 km/h (4 Bft) 97,87 %
04.03.2019 21:50 7,4 C 6,1 C 5,0 C 80 % 998,4 hPa 0,0 l/m 0 min 2 min 0 W/m 25,7 km/h (4 Bft) 97,87 %
04.03.2019 21:52 7,3 C 5,0 C 4,4 C 81 % 998,8 hPa 0,2 l/m 0 min 2 min 0 W/m 22,5 km/h (4 Bft) 97,83 %
04.03.2019 21:54 7,2 C 3,9 C 3,9 C 81 % 998,8 hPa 0,2 l/m 0 min 2 min 0 W/m 45,1 km/h (6 Bft) 97,87 %
04.03.2019 21:56 6,9 C 3,9 C 3,3 C 82 % 998,7 hPa 0,0 l/m 0 min 2 min 0 W/m 35,4 km/h (5 Bft) 95,74 %
04.03.2019 21:58 6,7 C 3,9 C 3,3 C 82 % 998,6 hPa 0,2 l/m 0 min 2 min 0 W/m 19,3 km/h (3 Bft) 95,74 %
04.03.2019 22:00 6,6 C 3,9 C 3,3 C 83 % 998,7 hPa 0,0 l/m 0 min 2 min 0 W/m 25,7 km/h (4 Bft) 93,62 %
04.03.2019 22:02 6,4 C 3,9 C 3,3 C 84 % 998,6 hPa 0,0 l/m 0 min 2 min 0 W/m 32,2 km/h (5 Bft) 95,74 %
04.03.2019 22:04 6,2 C 3,9 C 3,3 C 84 % 998,6 hPa 0,0 l/m 0 min 2 min 0 W/m 16,1 km/h (3 Bft) 93,48 %
04.03.2019 22:06 6,1 C 3,9 C 3,3 C 85 % 998,6 hPa 0,0 l/m 0 min 2 min 0 W/m 12,9 km/h (3 Bft) 91,49 %
04.03.2019 22:08 5,9 C 3,9 C 3,3 C 85 % 998,6 hPa 0,0 l/m 0 min 2 min 0 W/m 12,9 km/h (3 Bft) 95,74 %
04.03.2019 22:10 5,9 C 3,9 C 3,3 C 86 % 998,6 hPa 0,2 l/m 0 min 2 min 0 W/m 9,7 km/h (2 Bft) 93,62 %
04.03.2019 22:12 5,8 C 3,9 C 3,3 C 86 % 998,6 hPa 0,0 l/m 0 min 2 min 0 W/m 12,9 km/h (3 Bft) 95,74 %
04.03.2019 22:14 5,7 C 3,9 C 3,3 C 87 % 998,6 hPa 0,0 l/m 0 min 2 min 0 W/m 16,1 km/h (3 Bft) 95,74 %
04.03.2019 22:16 5,7 C 3,9 C 3,3 C 87 % 998,7 hPa 0,0 l/m 0 min 2 min 0 W/m 12,9 km/h (3 Bft) 95,65 %
04.03.2019 22:18 5,6 C 3,9 C 3,3 C 87 % 998,7 hPa 0,0 l/m 0 min 2 min 0 W/m 16,1 km/h (3 Bft) 95,74 %
04.03.2019 22:20 5,6 C 3,9 C 3,3 C 88 % 998,6 hPa 0,0 l/m 0 min 2 min 0 W/m 19,3 km/h (3 Bft) 95,74 %
04.03.2019 22:22 5,6 C 3,9 C 3,3 C 88 % 998,7 hPa 0,0 l/m 0 min 2 min 0 W/m 9,7 km/h (2 Bft) 95,74 %
04.03.2019 22:24 5,5 C 3,9 C 3,3 C 88 % 998,8 hPa 0,0 l/m 0 min 0 min 0 W/m 9,7 km/h (2 Bft) 95,74 %
04.03.2019 22:26 5,5 C 3,9 C 3,9 C 88 % 998,8 hPa 0,0 l/m 0 min 2 min 0 W/m 16,1 km/h (3 Bft) 95,74 %
04.03.2019 22:28 5,5 C 4,4 C 3,9 C 88 % 998,7 hPa 0,0 l/m 0 min 2 min 0 W/m 9,7 km/h (2 Bft) 97,83 %
04.03.2019 22:30 5,5 C 4,4 C 3,9 C 89 % 999,0 hPa 0,0 l/m 0 min 0 min 0 W/m 22,5 km/h (4 Bft) 95,74 %
04.03.2019 22:32 5,5 C 4,4 C 3,9 C 89 % 998,9 hPa 0,0 l/m 0 min 2 min 0 W/m 16,1 km/h (3 Bft) 97,87 %
04.03.2019 22:34 5,4 C 4,4 C 3,9 C 89 % 999,0 hPa 0,0 l/m 0 min 2 min 0 W/m 19,3 km/h (3 Bft) 97,87 %
04.03.2019 22:36 5,5 C 4,4 C 3,9 C 89 % 999,1 hPa 0,0 l/m 0 min 2 min 0 W/m 22,5 km/h (4 Bft) 97,87 %
04.03.2019 22:38 5,5 C 4,4 C 3,9 C 90 % 999,1 hPa 0,0 l/m 0 min 2 min 0 W/m 16,1 km/h (3 Bft) 97,83 %
04.03.2019 22:40 5,5 C 4,4 C 3,9 C 90 % 999,1 hPa 0,0 l/m 0 min 0 min 0 W/m 16,1 km/h (3 Bft) 97,87 %
04.03.2019 22:42 5,5 C 4,4 C 3,9 C 90 % 999,1 hPa 0,0 l/m 0 min 0 min 0 W/m 16,1 km/h (3 Bft) 97,87 %
04.03.2019 22:44 5,5 C 4,4 C 3,9 C 90 % 999,0 hPa 0,0 l/m 0 min 0 min 0 W/m 35,4 km/h (5 Bft) 97,87 %
04.03.2019 22:46 5,6 C 4,4 C 3,9 C 90 % 999,1 hPa 0,0 l/m 0 min 0 min 0 W/m 22,5 km/h (4 Bft) 97,87 %
04.03.2019 22:48 5,6 C 4,4 C 4,4 C 90 % 999,1 hPa 0,0 l/m 0 min 0 min 0 W/m 19,3 km/h (3 Bft) 95,74 %
04.03.2019 22:50 5,6 C 4,4 C 4,4 C 90 % 999,1 hPa 0,0 l/m 0 min 0 min 0 W/m 22,5 km/h (4 Bft) 97,83 %
04.03.2019 22:52 5,6 C 4,4 C 4,4 C 91 % 999,2 hPa 0,0 l/m 0 min 0 min 0 W/m 25,7 km/h (4 Bft) 95,74 %
04.03.2019 22:54 5,6 C 4,4 C 4,4 C 91 % 999,2 hPa 0,0 l/m 0 min 0 min 0 W/m 16,1 km/h (3 Bft) 97,87 %
04.03.2019 22:56 5,6 C 4,4 C 4,4 C 91 % 999,2 hPa 0,0 l/m 0 min 0 min 0 W/m 19,3 km/h (3 Bft) 97,87 %
04.03.2019 22:58 5,7 C 4,4 C 4,4 C 91 % 999,2 hPa 0,0 l/m 0 min 0 min 0 W/m 19,3 km/h (3 Bft) 97,87 %
04.03.2019 23:00 5,7 C 4,4 C 4,4 C 91 % 999,1 hPa 0,0 l/m 0 min 0 min 0 W/m 19,3 km/h (3 Bft) 97,87 %
04.03.2019 23:02 5,7 C 4,4 C 4,4 C 91 % 999,1 hPa 0,0 l/m 0 min 0 min 0 W/m 19,3 km/h (3 Bft) 97,83 %
04.03.2019 23:04 5,7 C 4,4 C 4,4 C 91 % 999,0 hPa 0,0 l/m 0 min 0 min 0 W/m 19,3 km/h (3 Bft) 95,74 %
04.03.2019 23:06 5,7 C 4,4 C 4,4 C 91 % 999,3 hPa 0,0 l/m 0 min 0 min 0 W/m 29,0 km/h (5 Bft) 97,87 %
04.03.2019 23:08 5,7 C 5,0 C 4,4 C 91 % 999,3 hPa 0,0 l/m 0 min 0 min 0 W/m 19,3 km/h (3 Bft) 100,00 %
04.03.2019 23:10 5,7 C 5,0 C 4,4 C 91 % 999,4 hPa 0,0 l/m 0 min 0 min 0 W/m 22,5 km/h (4 Bft) 100,00 %
04.03.2019 23:12 5,7 C 5,0 C 4,4 C 91 % 999,4 hPa 0,0 l/m 0 min 0 min 0 W/m 19,3 km/h (3 Bft) 100,00 %
04.03.2019 23:14 5,7 C 4,4 C 4,4 C 91 % 999,3 hPa 0,0 l/m 0 min 0 min 0 W/m 16,1 km/h (3 Bft) 100,00 %
04.03.2019 23:16 5,8 C 5,0 C 4,4 C 91 % 999,4 hPa 0,0 l/m 0 min 0 min 0 W/m 25,7 km/h (4 Bft) 97,87 %
04.03.2019 23:18 5,8 C 5,0 C 4,4 C 91 % 999,4 hPa 0,0 l/m 0 min 0 min 0 W/m 19,3 km/h (3 Bft) 100,00 %
04.03.2019 23:20 5,8 C 5,0 C 5,0 C 91 % 999,4 hPa 0,0 l/m 0 min 0 min 0 W/m 25,7 km/h (4 Bft) 100,00 %
04.03.2019 23:22 5,8 C 5,0 C 4,4 C 91 % 999,4 hPa 0,0 l/m 0 min 0 min 0 W/m 19,3 km/h (3 Bft) 100,00 %
04.03.2019 23:24 5,8 C 5,0 C 4,4 C 91 % 999,4 hPa 0,0 l/m 0 min 0 min 0 W/m 22,5 km/h (4 Bft) 97,87 %
04.03.2019 23:26 5,8 C 5,0 C 4,4 C 91 % 999,4 hPa 0,0 l/m 0 min 0 min 0 W/m 16,1 km/h (3 Bft) 97,83 %
04.03.2019 23:28 5,8 C 5,0 C 5,0 C 91 % 999,4 hPa 0,0 l/m 0 min 0 min 0 W/m 22,5 km/h (4 Bft) 100,00 %
04.03.2019 23:30 5,8 C 5,0 C 5,0 C 91 % 999,5 hPa 0,0 l/m 0 min 0 min 0 W/m 22,5 km/h (4 Bft) 100,00 %
04.03.2019 23:32 5,9 C 5,0 C 5,0 C 91 % 999,4 hPa 0,0 l/m 0 min 0 min 0 W/m 35,4 km/h (5 Bft) 100,00 %
04.03.2019 23:34 5,9 C 5,0 C 5,0 C 91 % 999,5 hPa 0,0 l/m 0 min 0 min 0 W/m 22,5 km/h (4 Bft) 97,87 %
04.03.2019 23:36 5,9 C 5,0 C 5,0 C 90 % 999,5 hPa 0,0 l/m 0 min 0 min 0 W/m 16,1 km/h (3 Bft) 100,00 %
04.03.2019 23:38 5,9 C 5,0 C 5,0 C 90 % 999,5 hPa 0,0 l/m 0 min 0 min 0 W/m 16,1 km/h (3 Bft) 100,00 %
04.03.2019 23:40 6,0 C 5,0 C 5,0 C 90 % 999,6 hPa 0,0 l/m 0 min 0 min 0 W/m 22,5 km/h (4 Bft) 100,00 %
04.03.2019 23:42 6,0 C 5,0 C 5,0 C 90 % 999,6 hPa 0,0 l/m 0 min 0 min 0 W/m 25,7 km/h (4 Bft) 100,00 %
04.03.2019 23:44 6,1 C 5,0 C 5,0 C 90 % 999,5 hPa 0,0 l/m 0 min 0 min 0 W/m 19,3 km/h (3 Bft) 100,00 %
04.03.2019 23:46 6,1 C 5,0 C 5,0 C 90 % 999,6 hPa 0,0 l/m 0 min 0 min 0 W/m 25,7 km/h (4 Bft) 100,00 %
04.03.2019 23:48 6,1 C 5,6 C 5,0 C 89 % 999,6 hPa 0,0 l/m 0 min 0 min 0 W/m 16,1 km/h (3 Bft) 100,00 %
04.03.2019 23:50 6,2 C 5,6 C 5,0 C 89 % 999,6 hPa 0,0 l/m 0 min 0 min 0 W/m 22,5 km/h (4 Bft) 100,00 %
04.03.2019 23:52 6,2 C 5,6 C 5,0 C 89 % 999,6 hPa 0,0 l/m 0 min 0 min 0 W/m 19,3 km/h (3 Bft) 100,00 %
04.03.2019 23:54 6,2 C 5,6 C 5,0 C 89 % 999,8 hPa 0,0 l/m 0 min 0 min 0 W/m 25,7 km/h (4 Bft) 97,87 %
04.03.2019 23:56 6,2 C 5,6 C 5,0 C 89 % 999,8 hPa 0,0 l/m 0 min 0 min 0 W/m 22,5 km/h (4 Bft) 97,87 %
04.03.2019 23:58 6,3 C 5,6 C 5,0 C 89 % 999,8 hPa 0,0 l/m 0 min 0 min 0 W/m 19,3 km/h (3 Bft) 97,87 %
_ Min-Zeit 22:34 21:54 21:56 17:04 06:40 - - - - 19:14 18:24
Minimum _ 5,4 C 3,9 C 3,3 C 64 % 986,3 hPa - - - - 3,2 km/h (1 Bft) 89,36 %
_ Max-Zeit 04:34 04:20 04:24 12:38 23:54 11:56 08:24 12:07 13:38 06:04 00:02
Maximum _ 13,9 C 13,3 C 12,8 C 92 % 999,8 hPa 0,6 l/m 2 min 3 min 559 W/m 93,3 km/h
S-SO (10 Bft)
100,00 %
Durchschnitt _ 9,5 C 8,9 C 8,1 C 77 % 992,6 hPa #5,4 l/m #3:18 h #4:20 h 148 W/m 30,1 km/h (5 Bft) 97,53 %
© 2019 W. Hausmann